Wetterdaten: Freitag, 18.01.2019
Datum Zeit Temp. Aussen Temp. o. S. +5cm Feuchte Auss Luftdruck Regen Sonnenschein Regendauer Solar Windben Empfang
18.01.2019 00:00 0,2 C -0,6 C -1,1 C 97 % 1011,0 hPa 0,0 l/m 0 min 0 min 0 W/m 6,4 km/h (2 Bft) 100,00 %
18.01.2019 00:02 0,2 C -0,6 C -1,1 C 97 % 1010,9 hPa 0,0 l/m 0 min 0 min 0 W/m 9,7 km/h (2 Bft) 100,00 %
18.01.2019 00:04 0,2 C -0,6 C -0,6 C 97 % 1010,9 hPa 0,0 l/m 0 min 0 min 0 W/m 22,5 km/h (4 Bft) 100,00 %
18.01.2019 00:07 0,2 C -0,6 C -0,6 C 97 % 1011,0 hPa 0,0 l/m 0 min 0 min 0 W/m 9,7 km/h (2 Bft) 98,57 %
18.01.2019 00:08 0,2 C -0,6 C -0,6 C 97 % 1011,0 hPa 0,0 l/m 0 min 0 min 0 W/m 12,9 km/h (3 Bft) 100,00 %
18.01.2019 00:10 0,2 C -0,6 C -0,6 C 97 % 1011,0 hPa 0,0 l/m 0 min 0 min 0 W/m 9,7 km/h (2 Bft) 97,83 %
18.01.2019 00:12 0,3 C 0,0 C -0,6 C 97 % 1011,0 hPa 0,0 l/m 0 min 0 min 0 W/m 12,9 km/h (3 Bft) 97,87 %
18.01.2019 00:14 0,3 C 0,0 C -0,6 C 97 % 1011,0 hPa 0,0 l/m 0 min 0 min 0 W/m 9,7 km/h (2 Bft) 95,74 %
18.01.2019 00:16 0,3 C 0,0 C -0,6 C 97 % 1011,0 hPa 0,0 l/m 0 min 0 min 0 W/m 9,7 km/h (2 Bft) 97,87 %
18.01.2019 00:18 0,3 C -0,6 C -0,6 C 97 % 1011,1 hPa 0,0 l/m 0 min 0 min 0 W/m 9,7 km/h (2 Bft) 97,87 %
18.01.2019 00:20 0,3 C -0,6 C -1,1 C 97 % 1011,3 hPa 0,0 l/m 0 min 0 min 0 W/m 16,1 km/h (3 Bft) 97,83 %
18.01.2019 00:22 0,3 C -0,6 C -1,1 C 97 % 1011,3 hPa 0,0 l/m 0 min 0 min 0 W/m 12,9 km/h (3 Bft) 97,87 %
18.01.2019 00:24 0,3 C -0,6 C -1,1 C 97 % 1011,3 hPa 0,0 l/m 0 min 0 min 0 W/m 9,7 km/h (2 Bft) 95,74 %
18.01.2019 00:26 0,3 C -0,6 C -1,1 C 97 % 1011,3 hPa 0,0 l/m 0 min 0 min 0 W/m 9,7 km/h (2 Bft) 97,87 %
18.01.2019 00:28 0,3 C -0,6 C -1,1 C 97 % 1011,5 hPa 0,0 l/m 0 min 0 min 0 W/m 6,4 km/h (2 Bft) 93,62 %
18.01.2019 00:30 0,2 C -0,6 C -1,1 C 97 % 1011,5 hPa 0,0 l/m 0 min 0 min 0 W/m 9,7 km/h (2 Bft) 95,74 %
18.01.2019 00:32 0,2 C -0,6 C -1,1 C 97 % 1011,5 hPa 0,0 l/m 0 min 0 min 0 W/m 19,3 km/h (3 Bft) 95,65 %
18.01.2019 00:34 0,2 C -0,6 C -1,1 C 97 % 1011,5 hPa 0,0 l/m 0 min 0 min 0 W/m 6,4 km/h (2 Bft) 97,87 %
18.01.2019 00:36 0,2 C -0,6 C -1,1 C 97 % 1011,4 hPa 0,0 l/m 0 min 0 min 0 W/m 6,4 km/h (2 Bft) 97,87 %
18.01.2019 00:38 0,2 C -0,6 C -1,1 C 97 % 1011,5 hPa 0,0 l/m 0 min 0 min 0 W/m 9,7 km/h (2 Bft) 93,62 %
18.01.2019 00:40 0,2 C -0,6 C -1,1 C 97 % 1011,5 hPa 0,0 l/m 0 min 0 min 0 W/m 9,7 km/h (2 Bft) 95,74 %
18.01.2019 00:42 0,2 C -0,6 C -1,1 C 97 % 1011,6 hPa 0,0 l/m 0 min 0 min 0 W/m 12,9 km/h (3 Bft) 95,74 %
18.01.2019 00:44 0,2 C -0,6 C -1,1 C 97 % 1011,6 hPa 0,0 l/m 0 min 0 min 0 W/m 6,4 km/h (2 Bft) 97,83 %
18.01.2019 00:46 0,1 C -0,6 C -1,1 C 97 % 1011,6 hPa 0,0 l/m 0 min 0 min 0 W/m 9,7 km/h (2 Bft) 97,87 %
18.01.2019 00:48 0,1 C -0,6 C -1,1 C 97 % 1011,7 hPa 0,0 l/m 0 min 0 min 0 W/m 9,7 km/h (2 Bft) 95,74 %
18.01.2019 00:50 0,1 C -1,1 C -1,1 C 97 % 1011,6 hPa 0,0 l/m 0 min 0 min 0 W/m 16,1 km/h (3 Bft) 93,62 %
18.01.2019 00:52 0,1 C -0,6 C -1,1 C 97 % 1011,7 hPa 0,0 l/m 0 min 0 min 0 W/m 12,9 km/h (3 Bft) 97,87 %
18.01.2019 00:54 0,1 C -0,6 C -1,1 C 97 % 1011,8 hPa 0,0 l/m 0 min 0 min 0 W/m 6,4 km/h (2 Bft) 95,74 %
18.01.2019 00:56 0,1 C -0,6 C -1,1 C 97 % 1011,8 hPa 0,0 l/m 0 min 0 min 0 W/m 9,7 km/h (2 Bft) 97,83 %
18.01.2019 00:58 0,1 C -1,1 C -1,1 C 97 % 1011,7 hPa 0,0 l/m 0 min 0 min 0 W/m 6,4 km/h (2 Bft) 97,87 %
18.01.2019 01:00 0,0 C -1,1 C -1,1 C 97 % 1011,9 hPa 0,0 l/m 0 min 0 min 0 W/m 6,4 km/h (2 Bft) 93,62 %
18.01.2019 01:02 0,0 C -1,1 C -1,1 C 97 % 1011,9 hPa 0,0 l/m 0 min 0 min 0 W/m 12,9 km/h (3 Bft) 95,74 %
18.01.2019 01:04 0,0 C -1,1 C -1,1 C 97 % 1011,9 hPa 0,0 l/m 0 min 0 min 0 W/m 6,4 km/h (2 Bft) 95,74 %
18.01.2019 01:06 0,0 C -1,1 C -1,1 C 97 % 1011,9 hPa 0,0 l/m 0 min 0 min 0 W/m 9,7 km/h (2 Bft) 91,30 %
18.01.2019 01:08 0,0 C -1,1 C -1,1 C 97 % 1011,9 hPa 0,0 l/m 0 min 0 min 0 W/m 9,7 km/h (2 Bft) 95,74 %
18.01.2019 01:10 0,0 C -1,1 C -1,1 C 97 % 1011,9 hPa 0,0 l/m 0 min 0 min 0 W/m 6,4 km/h (2 Bft) 93,62 %
18.01.2019 01:12 0,0 C -0,6 C -1,1 C 97 % 1011,8 hPa 0,0 l/m 0 min 0 min 0 W/m 6,4 km/h (2 Bft) 95,74 %
18.01.2019 01:14 0,0 C -0,6 C -1,1 C 97 % 1011,9 hPa 0,0 l/m 0 min 0 min 0 W/m 12,9 km/h (3 Bft) 95,74 %
18.01.2019 01:16 0,0 C -0,6 C -1,1 C 97 % 1011,9 hPa 0,0 l/m 0 min 0 min 0 W/m 6,4 km/h (2 Bft) 95,74 %
18.01.2019 01:18 0,0 C -0,6 C -1,1 C 97 % 1011,9 hPa 0,0 l/m 0 min 0 min 0 W/m 6,4 km/h (2 Bft) 95,65 %
18.01.2019 01:20 0,0 C -0,6 C -1,1 C 97 % 1011,9 hPa 0,0 l/m 0 min 0 min 0 W/m 16,1 km/h (3 Bft) 95,74 %
18.01.2019 01:22 0,0 C -0,6 C -1,1 C 97 % 1011,9 hPa 0,0 l/m 0 min 0 min 0 W/m 6,4 km/h (2 Bft) 93,62 %
18.01.2019 01:24 0,0 C -0,6 C -1,1 C 97 % 1011,9 hPa 0,0 l/m 0 min 0 min 0 W/m 9,7 km/h (2 Bft) 95,74 %
18.01.2019 01:26 0,0 C -0,6 C -1,1 C 97 % 1012,0 hPa 0,0 l/m 0 min 0 min 0 W/m 9,7 km/h (2 Bft) 95,74 %
18.01.2019 01:28 0,0 C -0,6 C -1,1 C 97 % 1012,0 hPa 0,0 l/m 0 min 0 min 0 W/m 12,9 km/h (3 Bft) 95,74 %
18.01.2019 01:30 0,1 C -0,6 C -1,1 C 97 % 1012,2 hPa 0,0 l/m 0 min 0 min 0 W/m 12,9 km/h (3 Bft) 95,65 %
18.01.2019 01:32 0,1 C -0,6 C -1,1 C 97 % 1012,1 hPa 0,0 l/m 0 min 0 min 0 W/m 19,3 km/h (3 Bft) 97,92 %
18.01.2019 01:34 0,1 C -0,6 C -1,1 C 98 % 1012,2 hPa 0,0 l/m 0 min 0 min 0 W/m 6,4 km/h (2 Bft) 97,87 %
18.01.2019 01:36 0,1 C -0,6 C -1,1 C 98 % 1012,1 hPa 0,0 l/m 0 min 0 min 0 W/m 12,9 km/h (3 Bft) 95,74 %
18.01.2019 01:38 0,0 C -0,6 C -1,1 C 98 % 1012,2 hPa 0,0 l/m 0 min 0 min 0 W/m 6,4 km/h (2 Bft) 97,87 %
18.01.2019 01:40 0,1 C -0,6 C -1,1 C 98 % 1012,2 hPa 0,0 l/m 0 min 0 min 0 W/m 16,1 km/h (3 Bft) 95,74 %
18.01.2019 01:42 0,0 C -0,6 C -1,1 C 98 % 1012,2 hPa 0,0 l/m 0 min 0 min 0 W/m 12,9 km/h (3 Bft) 97,83 %
18.01.2019 01:44 0,0 C -0,6 C -1,1 C 98 % 1012,3 hPa 0,0 l/m 0 min 0 min 0 W/m 6,4 km/h (2 Bft) 97,87 %
18.01.2019 01:46 0,0 C -0,6 C -1,1 C 98 % 1012,3 hPa 0,0 l/m 0 min 0 min 0 W/m 9,7 km/h (2 Bft) 97,87 %
18.01.2019 01:48 0,0 C -1,1 C -1,1 C 98 % 1012,2 hPa 0,0 l/m 0 min 0 min 0 W/m 9,7 km/h (2 Bft) 97,87 %
18.01.2019 01:50 0,0 C -1,1 C -1,1 C 97 % 1012,3 hPa 0,0 l/m 0 min 0 min 0 W/m 6,4 km/h (2 Bft) 97,87 %
18.01.2019 01:52 0,0 C -1,1 C -1,1 C 97 % 1012,3 hPa 0,0 l/m 0 min 0 min 0 W/m 9,7 km/h (2 Bft) 97,87 %
18.01.2019 01:54 -0,1 C -1,1 C -1,1 C 97 % 1012,3 hPa 0,0 l/m 0 min 0 min 0 W/m 6,4 km/h (2 Bft) 97,83 %
18.01.2019 01:56 -0,1 C -1,1 C -1,1 C 97 % 1012,3 hPa 0,0 l/m 0 min 0 min 0 W/m 9,7 km/h (2 Bft) 95,74 %
18.01.2019 01:58 -0,1 C -1,1 C -1,1 C 97 % 1012,4 hPa 0,0 l/m 0 min 0 min 0 W/m 6,4 km/h (2 Bft) 95,74 %
18.01.2019 02:00 -0,1 C -1,1 C -1,1 C 97 % 1012,4 hPa 0,0 l/m 0 min 0 min 0 W/m 9,7 km/h (2 Bft) 100,00 %
18.01.2019 02:02 -0,1 C -1,1 C -1,1 C 97 % 1012,4 hPa 0,0 l/m 0 min 0 min 0 W/m 6,4 km/h (2 Bft) 100,00 %
18.01.2019 02:04 -0,1 C -1,1 C -1,1 C 97 % 1012,5 hPa 0,0 l/m 0 min 0 min 0 W/m 3,2 km/h (1 Bft) 100,00 %
18.01.2019 02:06 -0,1 C -1,1 C -1,1 C 97 % 1012,4 hPa 0,0 l/m 0 min 0 min 0 W/m 9,7 km/h (2 Bft) 100,00 %
18.01.2019 02:08 -0,1 C -1,1 C -1,1 C 97 % 1012,6 hPa 0,0 l/m 0 min 0 min 0 W/m 9,7 km/h (2 Bft) 97,87 %
18.01.2019 02:10 -0,1 C -1,1 C -1,1 C 97 % 1012,5 hPa 0,0 l/m 0 min 0 min 0 W/m 6,4 km/h (2 Bft) 100,00 %
18.01.2019 02:12 -0,1 C -1,1 C -1,1 C 97 % 1012,6 hPa 0,0 l/m 0 min 0 min 0 W/m 12,9 km/h (3 Bft) 100,00 %
18.01.2019 02:14 -0,1 C -1,1 C -1,1 C 97 % 1012,6 hPa 0,0 l/m 0 min 0 min 0 W/m 9,7 km/h (2 Bft) 100,00 %
18.01.2019 02:16 -0,1 C -1,1 C -1,1 C 97 % 1012,6 hPa 0,0 l/m 0 min 0 min 0 W/m 9,7 km/h (2 Bft) 100,00 %
18.01.2019 02:18 -0,2 C -1,1 C -1,1 C 97 % 1012,6 hPa 0,0 l/m 0 min 0 min 0 W/m 3,2 km/h (1 Bft) 100,00 %
18.01.2019 02:20 -0,1 C -1,1 C -1,1 C 97 % 1012,6 hPa 0,0 l/m 0 min 0 min 0 W/m 9,7 km/h (2 Bft) 100,00 %
18.01.2019 02:22 -0,2 C -1,1 C -1,7 C 97 % 1012,7 hPa 0,0 l/m 0 min 0 min 0 W/m 6,4 km/h (2 Bft) 97,87 %
18.01.2019 02:24 -0,2 C -1,1 C -1,1 C 97 % 1012,7 hPa 0,0 l/m 0 min 0 min 0 W/m 12,9 km/h (3 Bft) 100,00 %
18.01.2019 02:26 -0,2 C -1,1 C -1,1 C 97 % 1012,6 hPa 0,0 l/m 0 min 0 min 0 W/m 19,3 km/h (3 Bft) 100,00 %
18.01.2019 02:28 -0,2 C -0,6 C -1,1 C 97 % 1012,8 hPa 0,0 l/m 0 min 0 min 0 W/m 6,4 km/h (2 Bft) 100,00 %
18.01.2019 02:30 -0,2 C -1,1 C -1,1 C 97 % 1012,9 hPa 0,0 l/m 0 min 0 min 0 W/m 12,9 km/h (3 Bft) 100,00 %
18.01.2019 02:32 -0,2 C -1,1 C -1,1 C 98 % 1012,9 hPa 0,0 l/m 0 min 0 min 0 W/m 6,4 km/h (2 Bft) 97,87 %
18.01.2019 02:34 -0,2 C -1,1 C -1,7 C 98 % 1013,0 hPa 0,0 l/m 0 min 0 min 0 W/m 12,9 km/h (3 Bft) 97,87 %
18.01.2019 02:36 -0,2 C -1,1 C -1,7 C 98 % 1012,9 hPa 0,0 l/m 0 min 0 min 0 W/m 12,9 km/h (3 Bft) 97,87 %
18.01.2019 02:38 -0,2 C -1,1 C -1,7 C 98 % 1013,0 hPa 0,0 l/m 0 min 0 min 0 W/m 9,7 km/h (2 Bft) 100,00 %
18.01.2019 02:40 -0,2 C -1,1 C -1,7 C 98 % 1013,0 hPa 0,0 l/m 0 min 0 min 0 W/m 12,9 km/h (3 Bft) 97,83 %
18.01.2019 02:42 -0,2 C -1,1 C -1,7 C 98 % 1013,1 hPa 0,0 l/m 0 min 0 min 0 W/m 6,4 km/h (2 Bft) 100,00 %
18.01.2019 02:44 -0,2 C -1,1 C -1,7 C 98 % 1013,2 hPa 0,0 l/m 0 min 0 min 0 W/m 9,7 km/h (2 Bft) 100,00 %
18.01.2019 02:46 -0,2 C -1,1 C -1,7 C 98 % 1013,2 hPa 0,0 l/m 0 min 0 min 0 W/m 12,9 km/h (3 Bft) 97,87 %
18.01.2019 02:48 -0,3 C -1,1 C -1,7 C 98 % 1013,3 hPa 0,0 l/m 0 min 0 min 0 W/m 6,4 km/h (2 Bft) 100,00 %
18.01.2019 02:50 -0,3 C -1,1 C -1,7 C 98 % 1013,3 hPa 0,0 l/m 0 min 0 min 0 W/m 6,4 km/h (2 Bft) 95,74 %
18.01.2019 02:52 -0,3 C -1,1 C -1,7 C 97 % 1013,4 hPa 0,0 l/m 0 min 0 min 0 W/m 6,4 km/h (2 Bft) 97,83 %
18.01.2019 02:54 -0,3 C -1,1 C -1,7 C 97 % 1013,4 hPa 0,0 l/m 0 min 0 min 0 W/m 6,4 km/h (2 Bft) 97,87 %
18.01.2019 02:56 -0,3 C -1,1 C -1,7 C 97 % 1013,4 hPa 0,0 l/m 0 min 0 min 0 W/m 12,9 km/h (3 Bft) 97,87 %
18.01.2019 02:58 -0,3 C -1,1 C -1,7 C 97 % 1013,4 hPa 0,0 l/m 0 min 0 min 0 W/m 6,4 km/h (2 Bft) 95,74 %
18.01.2019 03:00 -0,3 C -1,1 C -1,7 C 97 % 1013,5 hPa 0,0 l/m 0 min 0 min 0 W/m 9,7 km/h (2 Bft) 97,87 %
18.01.2019 03:02 -0,4 C -1,1 C -1,7 C 97 % 1013,5 hPa 0,0 l/m 0 min 0 min 0 W/m 6,4 km/h (2 Bft) 97,87 %
18.01.2019 03:04 -0,4 C -1,1 C -1,7 C 97 % 1013,5 hPa 0,0 l/m 0 min 0 min 0 W/m 9,7 km/h (2 Bft) 97,83 %
18.01.2019 03:06 -0,4 C -1,1 C -1,7 C 97 % 1013,5 hPa 0,0 l/m 0 min 0 min 0 W/m 9,7 km/h (2 Bft) 97,87 %
18.01.2019 03:08 -0,4 C -1,1 C -1,7 C 97 % 1013,5 hPa 0,0 l/m 0 min 0 min 0 W/m 3,2 km/h (1 Bft) 93,62 %
18.01.2019 03:10 -0,4 C -1,1 C -1,7 C 97 % 1013,5 hPa 0,0 l/m 0 min 0 min 0 W/m 3,2 km/h (1 Bft) 97,87 %
18.01.2019 03:12 -0,4 C -1,1 C -1,7 C 97 % 1013,5 hPa 0,0 l/m 0 min 0 min 0 W/m 6,4 km/h (2 Bft) 97,87 %
18.01.2019 03:14 -0,4 C -1,7 C -1,7 C 98 % 1013,6 hPa 0,0 l/m 0 min 0 min 0 W/m 6,4 km/h (2 Bft) 95,74 %
18.01.2019 03:16 -0,5 C -1,7 C -1,7 C 98 % 1013,6 hPa 0,0 l/m 0 min 0 min 0 W/m 6,4 km/h (2 Bft) 93,48 %
18.01.2019 03:18 -0,5 C -1,7 C -1,7 C 98 % 1013,6 hPa 0,0 l/m 0 min 0 min 0 W/m 3,2 km/h (1 Bft) 95,74 %
18.01.2019 03:20 -0,5 C -1,7 C -1,7 C 98 % 1013,6 hPa 0,0 l/m 0 min 0 min 0 W/m 9,7 km/h (2 Bft) 95,74 %
18.01.2019 03:22 -0,6 C -1,7 C -1,7 C 98 % 1013,7 hPa 0,0 l/m 0 min 0 min 0 W/m 3,2 km/h (1 Bft) 95,74 %
18.01.2019 03:24 -0,6 C -1,7 C -1,7 C 98 % 1013,7 hPa 0,0 l/m 0 min 0 min 0 W/m 0,0 km/h (0 Bft) 93,62 %
18.01.2019 03:26 -0,6 C -1,7 C -1,7 C 98 % 1013,7 hPa 0,0 l/m 0 min 0 min 0 W/m 3,2 km/h (1 Bft) 95,65 %
18.01.2019 03:28 -0,6 C -1,7 C -1,7 C 98 % 1013,8 hPa 0,0 l/m 0 min 0 min 0 W/m 6,4 km/h (2 Bft) 95,74 %
18.01.2019 03:30 -0,6 C -1,7 C -1,7 C 98 % 1013,8 hPa 0,0 l/m 0 min 0 min 0 W/m 12,9 km/h (3 Bft) 95,74 %
18.01.2019 03:32 -0,6 C -1,7 C -1,7 C 97 % 1013,8 hPa 0,0 l/m 0 min 0 min 0 W/m 9,7 km/h (2 Bft) 93,62 %
18.01.2019 03:34 -0,7 C -1,7 C -1,7 C 97 % 1013,9 hPa 0,0 l/m 0 min 0 min 0 W/m 3,2 km/h (1 Bft) 95,74 %
18.01.2019 03:36 -0,7 C -1,7 C -1,7 C 97 % 1013,9 hPa 0,0 l/m 0 min 0 min 0 W/m 6,4 km/h (2 Bft) 97,87 %
18.01.2019 03:38 -0,7 C -1,7 C -2,2 C 97 % 1013,9 hPa 0,0 l/m 0 min 0 min 0 W/m 3,2 km/h (1 Bft) 97,87 %
18.01.2019 03:40 -0,7 C -1,7 C -2,2 C 97 % 1014,0 hPa 0,0 l/m 0 min 0 min 0 W/m 0,0 km/h (0 Bft) 97,87 %
18.01.2019 03:42 -0,7 C -1,7 C -1,7 C 97 % 1014,0 hPa 0,0 l/m 0 min 0 min 0 W/m 6,4 km/h (2 Bft) 97,87 %
18.01.2019 03:44 -0,7 C -1,7 C -2,2 C 97 % 1014,1 hPa 0,0 l/m 0 min 0 min 0 W/m 3,2 km/h (1 Bft) 95,74 %
18.01.2019 03:46 -0,7 C -1,7 C -2,2 C 97 % 1014,0 hPa 0,0 l/m 0 min 0 min 0 W/m 3,2 km/h (1 Bft) 95,74 %
18.01.2019 03:48 -0,7 C -1,7 C -2,2 C 97 % 1014,1 hPa 0,0 l/m 0 min 0 min 0 W/m 3,2 km/h (1 Bft) 97,83 %
18.01.2019 03:50 -0,8 C -1,7 C -2,2 C 97 % 1014,1 hPa 0,0 l/m 0 min 0 min 0 W/m 6,4 km/h (2 Bft) 97,87 %
18.01.2019 03:52 -0,8 C -1,7 C -2,2 C 97 % 1014,1 hPa 0,0 l/m 0 min 0 min 0 W/m 3,2 km/h (1 Bft) 97,87 %
18.01.2019 03:54 -0,8 C -1,7 C -2,2 C 97 % 1014,1 hPa 0,0 l/m 0 min 0 min 0 W/m 0,0 km/h (0 Bft) 97,87 %
18.01.2019 03:56 -0,8 C -1,7 C -2,2 C 97 % 1014,2 hPa 0,0 l/m 0 min 0 min 0 W/m 3,2 km/h (1 Bft) 97,87 %
18.01.2019 03:58 -0,8 C -1,7 C -2,2 C 97 % 1014,2 hPa 0,0 l/m 0 min 0 min 0 W/m 3,2 km/h (1 Bft) 97,87 %
18.01.2019 04:00 -0,8 C -1,7 C -2,2 C 97 % 1014,2 hPa 0,0 l/m 0 min 0 min 0 W/m 6,4 km/h (2 Bft) 97,83 %
18.01.2019 04:02 -0,8 C -1,7 C -2,2 C 97 % 1014,3 hPa 0,0 l/m 0 min 0 min 0 W/m 3,2 km/h (1 Bft) 100,00 %
18.01.2019 04:04 -0,8 C -2,2 C -2,2 C 97 % 1014,3 hPa 0,0 l/m 0 min 0 min 0 W/m 3,2 km/h (1 Bft) 95,74 %
18.01.2019 04:06 -0,9 C -1,7 C -2,2 C 98 % 1014,4 hPa 0,0 l/m 0 min 0 min 0 W/m 0,0 km/h (0 Bft) 100,00 %
18.01.2019 04:08 -0,9 C -1,7 C -2,2 C 97 % 1014,4 hPa 0,0 l/m 0 min 0 min 0 W/m 0,0 km/h (0 Bft) 100,00 %
18.01.2019 04:10 -0,9 C -2,2 C -2,2 C 98 % 1014,5 hPa 0,0 l/m 0 min 0 min 0 W/m 0,0 km/h (0 Bft) 100,00 %
18.01.2019 04:12 -0,9 C -2,2 C -2,2 C 98 % 1014,5 hPa 0,0 l/m 0 min 0 min 0 W/m 0,0 km/h (0 Bft) 100,00 %
18.01.2019 04:14 -0,9 C -2,2 C -2,2 C 98 % 1014,5 hPa 0,0 l/m 0 min 0 min 0 W/m 0,0 km/h (0 Bft) 100,00 %
18.01.2019 04:16 -0,9 C -1,7 C -2,2 C 98 % 1014,5 hPa 0,0 l/m 0 min 0 min 0 W/m 0,0 km/h (0 Bft) 100,00 %
18.01.2019 04:18 -1,0 C -2,2 C -2,2 C 97 % 1014,6 hPa 0,0 l/m 0 min 0 min 0 W/m 0,0 km/h (0 Bft) 100,00 %
18.01.2019 04:20 -1,0 C -2,2 C -2,2 C 97 % 1014,5 hPa 0,0 l/m 0 min 0 min 0 W/m 3,2 km/h (1 Bft) 100,00 %
18.01.2019 04:22 -1,0 C -2,2 C -2,2 C 97 % 1014,6 hPa 0,0 l/m 0 min 0 min 0 W/m 3,2 km/h (1 Bft) 100,00 %
18.01.2019 04:24 -1,0 C -2,2 C -2,2 C 97 % 1014,6 hPa 0,0 l/m 0 min 0 min 0 W/m 3,2 km/h (1 Bft) 97,87 %
18.01.2019 04:26 -1,0 C -2,2 C -2,2 C 97 % 1014,6 hPa 0,0 l/m 0 min 0 min 0 W/m 6,4 km/h (2 Bft) 95,74 %
18.01.2019 04:28 -1,0 C -2,2 C -2,2 C 97 % 1014,7 hPa 0,0 l/m 0 min 0 min 0 W/m 6,4 km/h (2 Bft) 100,00 %
18.01.2019 04:30 -1,1 C -2,2 C -2,2 C 97 % 1014,7 hPa 0,0 l/m 0 min 0 min 0 W/m 3,2 km/h (1 Bft) 100,00 %
18.01.2019 04:32 -1,1 C -2,2 C -2,2 C 97 % 1014,7 hPa 0,0 l/m 0 min 0 min 0 W/m 3,2 km/h (1 Bft) 100,00 %
18.01.2019 04:34 -1,1 C -1,7 C -2,2 C 97 % 1014,7 hPa 0,0 l/m 0 min 0 min 0 W/m 3,2 km/h (1 Bft) 97,87 %
18.01.2019 04:36 -1,1 C -2,2 C -2,2 C 97 % 1014,9 hPa 0,0 l/m 0 min 0 min 0 W/m 3,2 km/h (1 Bft) 100,00 %
18.01.2019 04:38 -1,1 C -2,2 C -2,2 C 97 % 1014,9 hPa 0,0 l/m 0 min 0 min 0 W/m 6,4 km/h (2 Bft) 100,00 %
18.01.2019 04:40 -1,1 C -2,2 C -2,2 C 97 % 1014,9 hPa 0,0 l/m 0 min 0 min 0 W/m 3,2 km/h (1 Bft) 100,00 %
18.01.2019 04:42 -1,1 C -2,2 C -2,2 C 97 % 1015,0 hPa 0,0 l/m 0 min 0 min 0 W/m 3,2 km/h (1 Bft) 97,87 %
18.01.2019 04:44 -1,1 C -2,2 C -2,2 C 97 % 1015,1 hPa 0,0 l/m 0 min 0 min 0 W/m 3,2 km/h (1 Bft) 100,00 %
18.01.2019 04:46 -1,1 C -2,2 C -2,2 C 97 % 1015,0 hPa 0,0 l/m 0 min 0 min 0 W/m 3,2 km/h (1 Bft) 97,83 %
18.01.2019 04:48 -1,1 C -2,2 C -2,2 C 97 % 1015,0 hPa 0,0 l/m 0 min 0 min 0 W/m 3,2 km/h (1 Bft) 97,87 %
18.01.2019 04:50 -1,2 C -2,2 C -2,2 C 97 % 1015,0 hPa 0,0 l/m 0 min 0 min 0 W/m 0,0 km/h (0 Bft) 95,74 %
18.01.2019 04:52 -1,2 C -2,2 C -2,2 C 97 % 1015,1 hPa 0,0 l/m 0 min 0 min 0 W/m 0,0 km/h (0 Bft) 97,87 %
18.01.2019 04:54 -1,2 C -2,2 C -2,2 C 98 % 1015,2 hPa 0,0 l/m 0 min 0 min 0 W/m 0,0 km/h (0 Bft) 97,87 %
18.01.2019 04:56 -1,2 C -2,2 C -2,2 C 98 % 1015,1 hPa 0,0 l/m 0 min 0 min 0 W/m 0,0 km/h (0 Bft) 97,87 %
18.01.2019 04:58 -1,2 C -2,2 C -2,2 C 98 % 1015,2 hPa 0,0 l/m 0 min 0 min 0 W/m 0,0 km/h (0 Bft) 97,83 %
18.01.2019 05:00 -1,2 C -2,2 C -2,2 C 98 % 1015,2 hPa 0,0 l/m 0 min 0 min 0 W/m 0,0 km/h (0 Bft) 97,87 %
18.01.2019 05:02 -1,2 C -2,2 C -2,2 C 98 % 1015,2 hPa 0,0 l/m 0 min 0 min 0 W/m 0,0 km/h (0 Bft) 97,87 %
18.01.2019 05:04 -1,2 C -2,2 C -2,2 C 98 % 1015,2 hPa 0,0 l/m 0 min 0 min 0 W/m 0,0 km/h (0 Bft) 97,87 %
18.01.2019 05:05 -1,2 C -2,2 C -2,8 C 98 % 1015,2 hPa 0,0 l/m 0 min 0 min 0 W/m 0,0 km/h (0 Bft) 100,00 %
18.01.2019 05:10 -1,3 C -2,2 C -2,8 C 98 % 1015,3 hPa 0,0 l/m 0 min 0 min 0 W/m 3,2 km/h (1 Bft) 98,25 %
18.01.2019 05:12 -1,3 C -2,2 C -2,8 C 98 % 1015,3 hPa 0,0 l/m 0 min 0 min 0 W/m 0,0 km/h (0 Bft) 100,00 %
18.01.2019 05:14 -1,3 C -2,8 C -2,8 C 98 % 1015,3 hPa 0,0 l/m 0 min 0 min 0 W/m 3,2 km/h (1 Bft) 100,00 %
18.01.2019 05:16 -1,3 C -2,8 C -2,8 C 98 % 1015,3 hPa 0,0 l/m 0 min 0 min 0 W/m 0,0 km/h (0 Bft) 97,87 %
18.01.2019 05:18 -1,3 C -2,8 C -2,8 C 98 % 1015,3 hPa 0,0 l/m 0 min 0 min 0 W/m 0,0 km/h (0 Bft) 97,56 %
18.01.2019 05:20 -1,3 C -2,8 C -2,8 C 97 % 1015,3 hPa 0,0 l/m 0 min 0 min 0 W/m 0,0 km/h (0 Bft) 98,00 %
18.01.2019 05:22 -1,3 C -2,8 C -2,8 C 97 % 1015,4 hPa 0,0 l/m 0 min 0 min 0 W/m 0,0 km/h (0 Bft) 97,96 %
18.01.2019 05:24 -1,4 C -2,8 C -2,8 C 97 % 1015,4 hPa 0,0 l/m 0 min 0 min 0 W/m 0,0 km/h (0 Bft) 95,74 %
18.01.2019 05:26 -1,4 C -2,8 C -2,8 C 97 % 1015,5 hPa 0,0 l/m 0 min 0 min 0 W/m 0,0 km/h (0 Bft) 95,74 %
18.01.2019 05:28 -1,4 C -2,8 C -2,8 C 97 % 1015,5 hPa 0,0 l/m 0 min 0 min 0 W/m 0,0 km/h (0 Bft) 95,12 %
18.01.2019 05:30 -1,4 C -2,8 C -2,8 C 97 % 1015,5 hPa 0,0 l/m 0 min 0 min 0 W/m 0,0 km/h (0 Bft) 97,87 %
18.01.2019 05:32 -1,4 C -2,8 C -2,8 C 97 % 1015,5 hPa 0,0 l/m 0 min 0 min 0 W/m 0,0 km/h (0 Bft) 98,00 %
18.01.2019 05:34 -1,5 C -2,8 C -2,8 C 97 % 1015,5 hPa 0,0 l/m 0 min 0 min 0 W/m 0,0 km/h (0 Bft) 95,92 %
18.01.2019 05:36 -1,5 C -2,8 C -2,8 C 97 % 1015,6 hPa 0,0 l/m 0 min 0 min 0 W/m 0,0 km/h (0 Bft) 89,36 %
18.01.2019 05:38 -1,6 C -2,8 C -2,8 C 97 % 1015,5 hPa 0,0 l/m 0 min 0 min 0 W/m 0,0 km/h (0 Bft) 93,62 %
18.01.2019 05:40 -1,6 C -2,8 C -2,8 C 97 % 1015,5 hPa 0,0 l/m 0 min 0 min 0 W/m 0,0 km/h (0 Bft) 93,62 %
18.01.2019 05:42 -1,6 C -2,8 C -2,8 C 97 % 1015,5 hPa 0,0 l/m 0 min 0 min 0 W/m 0,0 km/h (0 Bft) 93,62 %
18.01.2019 05:44 -1,6 C -2,8 C -2,8 C 97 % 1015,5 hPa 0,0 l/m 0 min 0 min 0 W/m 0,0 km/h (0 Bft) 92,68 %
18.01.2019 05:46 -1,6 C -2,8 C -2,8 C 97 % 1015,5 hPa 0,0 l/m 0 min 0 min 0 W/m 3,2 km/h (1 Bft) 91,49 %
18.01.2019 05:48 -1,6 C -2,8 C -2,8 C 97 % 1015,6 hPa 0,0 l/m 0 min 0 min 0 W/m 0,0 km/h (0 Bft) 94,00 %
18.01.2019 05:50 -1,7 C -2,2 C -2,8 C 97 % 1015,5 hPa 0,0 l/m 0 min 0 min 0 W/m 3,2 km/h (1 Bft) 93,88 %
18.01.2019 05:52 -1,7 C -2,2 C -2,8 C 97 % 1015,5 hPa 0,0 l/m 0 min 0 min 0 W/m 0,0 km/h (0 Bft) 93,62 %
18.01.2019 05:54 -1,7 C -2,2 C -2,8 C 97 % 1015,5 hPa 0,0 l/m 0 min 0 min 0 W/m 0,0 km/h (0 Bft) 91,49 %
18.01.2019 05:56 -1,7 C -2,2 C -2,2 C 97 % 1015,6 hPa 0,0 l/m 0 min 0 min 0 W/m 0,0 km/h (0 Bft) 95,65 %
18.01.2019 05:58 -1,7 C -2,2 C -2,2 C 97 % 1015,6 hPa 0,0 l/m 0 min 0 min 0 W/m 0,0 km/h (0 Bft) 95,65 %
18.01.2019 06:00 -1,7 C -2,2 C -2,2 C 97 % 1015,6 hPa 0,0 l/m 0 min 0 min 0 W/m 0,0 km/h (0 Bft) 91,49 %
18.01.2019 06:02 -1,7 C -2,8 C -2,2 C 97 % 1015,6 hPa 0,0 l/m 0 min 0 min 0 W/m 0,0 km/h (0 Bft) 95,24 %
18.01.2019 06:04 -1,7 C -2,8 C -2,2 C 97 % 1015,6 hPa 0,0 l/m 0 min 0 min 0 W/m 0,0 km/h (0 Bft) 95,92 %
18.01.2019 06:07 -1,7 C -2,8 C -2,8 C 97 % 1015,6 hPa 0,0 l/m 0 min 0 min 0 W/m 0,0 km/h (0 Bft) 97,26 %
18.01.2019 06:08 -1,7 C -2,8 C -2,2 C 97 % 1015,6 hPa 0,0 l/m 0 min 0 min 0 W/m 0,0 km/h (0 Bft) 91,30 %
18.01.2019 06:10 -1,7 C -2,8 C -1,7 C 97 % 1015,6 hPa 0,0 l/m 0 min 0 min 0 W/m 0,0 km/h (0 Bft) 95,74 %
18.01.2019 06:12 -1,8 C -3,3 C -1,7 C 97 % 1015,7 hPa 0,0 l/m 0 min 0 min 0 W/m 0,0 km/h (0 Bft) 97,87 %
18.01.2019 06:14 -1,8 C -3,3 C -1,7 C 97 % 1015,6 hPa 0,0 l/m 0 min 0 min 0 W/m 0,0 km/h (0 Bft) 95,74 %
18.01.2019 06:16 -1,8 C -2,8 C -1,7 C 97 % 1015,7 hPa 0,0 l/m 0 min 0 min 0 W/m 0,0 km/h (0 Bft) 95,74 %
18.01.2019 06:18 -1,8 C -3,3 C -1,7 C 97 % 1015,7 hPa 0,0 l/m 0 min 0 min 0 W/m 0,0 km/h (0 Bft) 95,74 %
18.01.2019 06:20 -1,8 C -3,3 C -2,2 C 97 % 1015,7 hPa 0,0 l/m 0 min 0 min 0 W/m 0,0 km/h (0 Bft) 97,83 %
18.01.2019 06:22 -1,8 C -3,3 C -2,2 C 97 % 1015,8 hPa 0,0 l/m 0 min 0 min 0 W/m 0,0 km/h (0 Bft) 97,87 %
18.01.2019 06:24 -1,8 C -3,3 C -2,2 C 97 % 1015,8 hPa 0,0 l/m 0 min 0 min 0 W/m 0,0 km/h (0 Bft) 100,00 %
18.01.2019 06:26 -1,8 C -3,9 C -2,8 C 97 % 1015,8 hPa 0,0 l/m 0 min 0 min 0 W/m 0,0 km/h (0 Bft) 100,00 %
18.01.2019 06:28 -1,9 C -3,9 C -3,3 C 97 % 1015,9 hPa 0,0 l/m 0 min 0 min 0 W/m 0,0 km/h (0 Bft) 100,00 %
18.01.2019 06:30 -1,9 C -3,3 C -3,3 C 97 % 1015,9 hPa 0,0 l/m 0 min 0 min 0 W/m 0,0 km/h (0 Bft) 100,00 %
18.01.2019 06:32 -1,9 C -3,3 C -3,3 C 97 % 1015,9 hPa 0,0 l/m 0 min 0 min 0 W/m 0,0 km/h (0 Bft) 100,00 %
18.01.2019 06:34 -1,9 C -3,3 C -3,3 C 97 % 1016,0 hPa 0,0 l/m 0 min 0 min 0 W/m 0,0 km/h (0 Bft) 100,00 %
18.01.2019 06:36 -1,9 C -1,1 C -3,3 C 97 % 1016,1 hPa 0,0 l/m 0 min 0 min 0 W/m 0,0 km/h (0 Bft) 100,00 %
18.01.2019 06:38 -1,9 C -1,1 C -3,3 C 97 % 1016,1 hPa 0,0 l/m 0 min 0 min 0 W/m 0,0 km/h (0 Bft) 100,00 %
18.01.2019 06:40 -2,0 C -1,1 C -3,3 C 97 % 1016,1 hPa 0,0 l/m 0 min 2 min 0 W/m 0,0 km/h (0 Bft) 95,74 %
18.01.2019 06:42 -2,0 C -1,7 C -3,3 C 97 % 1016,2 hPa 0,0 l/m 0 min 0 min 0 W/m 0,0 km/h (0 Bft) 97,83 %
18.01.2019 06:44 -2,0 C -1,7 C -3,3 C 97 % 1016,2 hPa 0,0 l/m 0 min 0 min 0 W/m 0,0 km/h (0 Bft) 100,00 %
18.01.2019 06:46 -2,1 C -1,7 C -3,3 C 97 % 1016,2 hPa 0,0 l/m 0 min 0 min 0 W/m 0,0 km/h (0 Bft) 100,00 %
18.01.2019 06:48 -2,1 C -1,7 C -3,3 C 97 % 1016,3 hPa 0,0 l/m 0 min 0 min 0 W/m 0,0 km/h (0 Bft) 100,00 %
18.01.2019 06:50 -2,1 C -2,2 C -3,3 C 97 % 1016,3 hPa 0,0 l/m 0 min 0 min 0 W/m 0,0 km/h (0 Bft) 100,00 %
18.01.2019 06:52 -2,1 C -2,2 C -3,3 C 97 % 1016,3 hPa 0,0 l/m 0 min 0 min 0 W/m 0,0 km/h (0 Bft) 97,87 %
18.01.2019 06:54 -2,2 C -2,8 C -3,3 C 97 % 1016,3 hPa 0,0 l/m 0 min 0 min 0 W/m 0,0 km/h (0 Bft) 100,00 %
18.01.2019 06:56 -2,2 C -2,8 C -3,9 C 97 % 1016,4 hPa 0,0 l/m 0 min 0 min 0 W/m 0,0 km/h (0 Bft) 100,00 %
18.01.2019 06:58 -2,2 C -2,8 C -3,9 C 97 % 1016,4 hPa 0,0 l/m 0 min 0 min 0 W/m 0,0 km/h (0 Bft) 100,00 %
18.01.2019 07:00 -2,2 C -3,3 C -3,9 C 97 % 1016,4 hPa 0,0 l/m 0 min 0 min 0 W/m 0,0 km/h (0 Bft) 100,00 %
18.01.2019 07:02 -2,2 C -3,3 C -3,9 C 97 % 1016,5 hPa 0,0 l/m 0 min 0 min 0 W/m 0,0 km/h (0 Bft) 100,00 %
18.01.2019 07:04 -2,2 C -3,3 C -3,9 C 97 % 1016,6 hPa 0,0 l/m 0 min 0 min 0 W/m 0,0 km/h (0 Bft) 100,00 %
18.01.2019 07:06 -2,3 C -2,8 C -3,9 C 97 % 1016,5 hPa 0,0 l/m 0 min 0 min 0 W/m 0,0 km/h (0 Bft) 100,00 %
18.01.2019 07:08 -2,3 C -2,8 C -3,9 C 97 % 1016,5 hPa 0,0 l/m 0 min 0 min 0 W/m 0,0 km/h (0 Bft) 100,00 %
18.01.2019 07:10 -2,3 C -2,8 C -3,9 C 97 % 1016,5 hPa 0,0 l/m 0 min 0 min 0 W/m 0,0 km/h (0 Bft) 100,00 %
18.01.2019 07:12 -2,3 C -2,8 C -3,9 C 97 % 1016,5 hPa 0,0 l/m 0 min 0 min 0 W/m 0,0 km/h (0 Bft) 100,00 %
18.01.2019 07:14 -2,3 C -2,8 C -3,9 C 97 % 1016,5 hPa 0,0 l/m 0 min 0 min 0 W/m 0,0 km/h (0 Bft) 95,74 %
18.01.2019 07:16 -2,3 C -2,8 C -3,9 C 97 % 1016,5 hPa 0,0 l/m 0 min 0 min 0 W/m 0,0 km/h (0 Bft) 100,00 %
18.01.2019 07:18 -2,3 C -2,8 C -3,9 C 97 % 1016,5 hPa 0,0 l/m 0 min 0 min 0 W/m 0,0 km/h (0 Bft) 100,00 %
18.01.2019 07:20 -2,3 C -2,8 C -3,3 C 97 % 1016,6 hPa 0,0 l/m 0 min 0 min 0 W/m 0,0 km/h (0 Bft) 100,00 %
18.01.2019 07:22 -2,4 C -2,8 C -3,9 C 97 % 1016,6 hPa 0,0 l/m 0 min 0 min 0 W/m 0,0 km/h (0 Bft) 100,00 %
18.01.2019 07:24 -2,4 C -2,8 C -3,9 C 97 % 1016,6 hPa 0,0 l/m 0 min 0 min 0 W/m 0,0 km/h (0 Bft) 97,87 %
18.01.2019 07:26 -2,3 C -3,3 C -3,9 C 97 % 1016,6 hPa 0,0 l/m 0 min 0 min 0 W/m 0,0 km/h (0 Bft) 97,87 %
18.01.2019 07:28 -2,4 C -3,3 C -3,9 C 97 % 1016,6 hPa 0,0 l/m 0 min 0 min 0 W/m 0,0 km/h (0 Bft) 100,00 %
18.01.2019 07:30 -2,4 C -3,9 C -3,9 C 97 % 1016,7 hPa 0,0 l/m 0 min 0 min 0 W/m 0,0 km/h (0 Bft) 100,00 %
18.01.2019 07:32 -2,4 C -3,3 C -3,9 C 97 % 1016,6 hPa 0,0 l/m 0 min 0 min 0 W/m 0,0 km/h (0 Bft) 97,87 %
18.01.2019 07:34 -2,4 C -3,3 C -3,9 C 97 % 1016,7 hPa 0,0 l/m 0 min 0 min 0 W/m 0,0 km/h (0 Bft) 95,74 %
18.01.2019 07:36 -2,4 C -3,3 C -3,9 C 97 % 1016,7 hPa 0,0 l/m 0 min 0 min 0 W/m 0,0 km/h (0 Bft) 97,87 %
18.01.2019 07:38 -2,4 C -3,3 C -3,9 C 97 % 1016,8 hPa 0,0 l/m 0 min 0 min 0 W/m 0,0 km/h (0 Bft) 97,87 %
18.01.2019 07:40 -2,4 C -3,3 C -3,9 C 97 % 1016,7 hPa 0,0 l/m 0 min 0 min 0 W/m 0,0 km/h (0 Bft) 97,83 %
18.01.2019 07:42 -2,4 C -3,3 C -3,9 C 97 % 1016,8 hPa 0,0 l/m 0 min 0 min 0 W/m 0,0 km/h (0 Bft) 97,87 %
18.01.2019 07:44 -2,4 C -3,3 C -3,9 C 97 % 1016,8 hPa 0,0 l/m 0 min 0 min 0 W/m 0,0 km/h (0 Bft) 95,74 %
18.01.2019 07:46 -2,4 C -3,3 C -3,9 C 97 % 1016,8 hPa 0,0 l/m 0 min 0 min 0 W/m 0,0 km/h (0 Bft) 97,87 %
18.01.2019 07:48 -2,4 C -3,3 C -3,9 C 97 % 1016,9 hPa 0,0 l/m 0 min 0 min 0 W/m 0,0 km/h (0 Bft) 97,87 %
18.01.2019 07:50 -2,4 C -3,3 C -3,9 C 97 % 1016,9 hPa 0,0 l/m 0 min 0 min 0 W/m 0,0 km/h (0 Bft) 97,87 %
18.01.2019 07:52 -2,4 C -3,3 C -3,9 C 97 % 1017,0 hPa 0,0 l/m 0 min 0 min 0 W/m 0,0 km/h (0 Bft) 93,48 %
18.01.2019 07:54 -2,5 C -3,3 C -3,9 C 97 % 1017,0 hPa 0,0 l/m 0 min 0 min 0 W/m 0,0 km/h (0 Bft) 97,87 %
18.01.2019 07:56 -2,5 C -3,3 C -3,9 C 97 % 1017,1 hPa 0,0 l/m 0 min 0 min 0 W/m 0,0 km/h (0 Bft) 97,87 %
18.01.2019 07:58 -2,5 C -3,3 C -3,9 C 97 % 1017,0 hPa 0,0 l/m 0 min 0 min 0 W/m 0,0 km/h (0 Bft) 95,74 %
18.01.2019 08:00 -2,5 C -3,9 C -3,9 C 97 % 1017,1 hPa 0,0 l/m 0 min 0 min 0 W/m 0,0 km/h (0 Bft) 97,87 %
18.01.2019 08:02 -2,6 C -3,9 C -3,9 C 97 % 1017,0 hPa 0,0 l/m 0 min 0 min 0 W/m 0,0 km/h (0 Bft) 97,87 %
18.01.2019 08:04 -2,6 C -3,9 C -3,9 C 97 % 1017,0 hPa 0,0 l/m 0 min 0 min 0 W/m 0,0 km/h (0 Bft) 93,48 %
18.01.2019 08:06 -2,6 C -4,4 C -4,4 C 97 % 1017,1 hPa 0,0 l/m 0 min 0 min 0 W/m 0,0 km/h (0 Bft) 97,87 %
18.01.2019 08:08 -2,6 C -3,9 C -4,4 C 97 % 1017,1 hPa 0,0 l/m 0 min 0 min 0 W/m 0,0 km/h (0 Bft) 100,00 %
18.01.2019 08:10 -2,6 C -4,4 C -4,4 C 97 % 1017,1 hPa 0,0 l/m 0 min 0 min 0 W/m 0,0 km/h (0 Bft) 100,00 %
18.01.2019 08:12 -2,6 C -4,4 C -4,4 C 97 % 1017,1 hPa 0,0 l/m 0 min 0 min 0 W/m 0,0 km/h (0 Bft) 100,00 %
18.01.2019 08:14 -2,6 C -4,4 C -4,4 C 97 % 1017,1 hPa 0,0 l/m 0 min 0 min 0 W/m 0,0 km/h (0 Bft) 100,00 %
18.01.2019 08:16 -2,7 C -4,4 C -4,4 C 97 % 1017,1 hPa 0,0 l/m 0 min 0 min 0 W/m 0,0 km/h (0 Bft) 95,65 %
18.01.2019 08:18 -2,7 C -4,4 C -4,4 C 97 % 1017,1 hPa 0,0 l/m 0 min 0 min 0 W/m 0,0 km/h (0 Bft) 100,00 %
18.01.2019 08:20 -2,7 C -4,4 C -4,4 C 97 % 1017,2 hPa 0,0 l/m 0 min 0 min 0 W/m 0,0 km/h (0 Bft) 100,00 %
18.01.2019 08:22 -2,7 C -4,4 C -4,4 C 97 % 1017,1 hPa 0,0 l/m 0 min 0 min 0 W/m 0,0 km/h (0 Bft) 97,87 %
18.01.2019 08:24 -2,7 C -3,9 C -4,4 C 97 % 1017,2 hPa 0,0 l/m 0 min 0 min 0 W/m 0,0 km/h (0 Bft) 95,74 %
18.01.2019 08:26 -2,8 C -3,9 C -4,4 C 97 % 1017,2 hPa 0,0 l/m 0 min 0 min 0 W/m 0,0 km/h (0 Bft) 100,00 %
18.01.2019 08:28 -2,8 C -3,3 C -4,4 C 97 % 1017,2 hPa 0,0 l/m 0 min 0 min 0 W/m 0,0 km/h (0 Bft) 95,74 %
18.01.2019 08:30 -2,8 C -3,3 C -4,4 C 97 % 1017,2 hPa 0,0 l/m 0 min 0 min 0 W/m 0,0 km/h (0 Bft) 97,87 %
18.01.2019 08:32 -2,8 C -3,3 C -3,9 C 97 % 1017,2 hPa 0,0 l/m 0 min 0 min 2 W/m 0,0 km/h (0 Bft) 97,87 %
18.01.2019 08:34 -2,9 C -3,9 C -3,9 C 97 % 1017,1 hPa 0,0 l/m 0 min 0 min 5 W/m 0,0 km/h (0 Bft) 97,87 %
18.01.2019 08:36 -2,9 C -3,3 C -3,9 C 97 % 1017,2 hPa 0,0 l/m 0 min 0 min 5 W/m 0,0 km/h (0 Bft) 95,74 %
18.01.2019 08:38 -2,9 C -3,3 C -3,9 C 97 % 1017,2 hPa 0,0 l/m 0 min 0 min 6 W/m 0,0 km/h (0 Bft) 93,48 %
18.01.2019 08:40 -2,9 C -3,3 C -3,9 C 97 % 1017,2 hPa 0,0 l/m 0 min 0 min 7 W/m 0,0 km/h (0 Bft) 95,74 %
18.01.2019 08:42 -3,0 C -3,3 C -3,9 C 97 % 1017,2 hPa 0,0 l/m 0 min 0 min 7 W/m 0,0 km/h (0 Bft) 95,74 %
18.01.2019 08:44 -3,0 C -3,3 C -3,9 C 97 % 1017,2 hPa 0,0 l/m 0 min 0 min 9 W/m 0,0 km/h (0 Bft) 95,74 %
18.01.2019 08:46 -3,0 C -3,3 C -3,9 C 97 % 1017,3 hPa 0,0 l/m 0 min 0 min 9 W/m 0,0 km/h (0 Bft) 93,62 %
18.01.2019 08:48 -3,0 C -3,3 C -3,9 C 97 % 1017,3 hPa 0,0 l/m 0 min 0 min 11 W/m 0,0 km/h (0 Bft) 95,74 %
18.01.2019 08:50 -3,0 C -3,3 C -3,9 C 97 % 1017,4 hPa 0,0 l/m 0 min 0 min 11 W/m 0,0 km/h (0 Bft) 95,65 %
18.01.2019 08:52 -3,0 C -3,3 C -3,9 C 97 % 1017,4 hPa 0,0 l/m 0 min 0 min 11 W/m 0,0 km/h (0 Bft) 95,74 %
18.01.2019 08:54 -3,0 C -2,8 C -3,9 C 97 % 1017,5 hPa 0,0 l/m 0 min 0 min 12 W/m 0,0 km/h (0 Bft) 93,62 %
18.01.2019 08:56 -3,0 C -2,8 C -3,3 C 97 % 1017,6 hPa 0,0 l/m 0 min 0 min 14 W/m 0,0 km/h (0 Bft) 93,62 %
18.01.2019 08:58 -2,9 C -2,8 C -3,3 C 97 % 1017,6 hPa 0,0 l/m 0 min 0 min 14 W/m 0,0 km/h (0 Bft) 95,74 %
18.01.2019 09:00 -2,9 C -2,8 C -3,3 C 97 % 1017,7 hPa 0,0 l/m 0 min 0 min 16 W/m 0,0 km/h (0 Bft) 93,62 %
18.01.2019 09:02 -2,9 C -3,3 C -3,9 C 97 % 1017,6 hPa 0,0 l/m 0 min 0 min 16 W/m 0,0 km/h (0 Bft) 93,48 %
18.01.2019 09:04 -2,9 C -3,3 C -3,9 C 97 % 1017,7 hPa 0,0 l/m 0 min 0 min 16 W/m 0,0 km/h (0 Bft) 95,74 %
18.01.2019 09:06 -2,9 C -3,3 C -3,9 C 97 % 1017,7 hPa 0,0 l/m 0 min 0 min 18 W/m 0,0 km/h (0 Bft) 97,87 %
18.01.2019 09:08 -2,8 C -3,3 C -3,9 C 97 % 1017,7 hPa 0,0 l/m 0 min 0 min 18 W/m 0,0 km/h (0 Bft) 97,62 %
18.01.2019 09:10 -2,8 C -2,8 C -3,3 C 97 % 1017,8 hPa 0,0 l/m 0 min 0 min 19 W/m 0,0 km/h (0 Bft) 93,48 %
18.01.2019 09:12 -2,8 C -2,8 C -3,3 C 97 % 1017,7 hPa 0,0 l/m 0 min 0 min 19 W/m 3,2 km/h (1 Bft) 97,87 %
18.01.2019 09:14 -2,8 C -2,8 C -3,3 C 97 % 1017,8 hPa 0,0 l/m 0 min 0 min 19 W/m 0,0 km/h (0 Bft) 93,62 %
18.01.2019 09:16 -2,7 C -2,8 C -3,3 C 97 % 1017,7 hPa 0,0 l/m 0 min 0 min 19 W/m 0,0 km/h (0 Bft) 97,87 %
18.01.2019 09:18 -2,7 C -2,8 C -3,3 C 97 % 1017,8 hPa 0,0 l/m 0 min 0 min 21 W/m 0,0 km/h (0 Bft) 97,87 %
18.01.2019 09:20 -2,7 C -2,8 C -3,3 C 97 % 1017,7 hPa 0,0 l/m 0 min 0 min 21 W/m 0,0 km/h (0 Bft) 97,83 %
18.01.2019 09:22 -2,7 C -2,8 C -3,3 C 97 % 1017,8 hPa 0,0 l/m 0 min 0 min 22 W/m 0,0 km/h (0 Bft) 95,74 %
18.01.2019 09:24 -2,6 C -2,8 C -3,3 C 97 % 1017,8 hPa 0,0 l/m 0 min 0 min 23 W/m 0,0 km/h (0 Bft) 95,74 %
18.01.2019 09:26 -2,6 C -2,8 C -3,3 C 97 % 1017,8 hPa 0,0 l/m 0 min 0 min 25 W/m 0,0 km/h (0 Bft) 95,74 %
18.01.2019 09:28 -2,6 C -2,2 C -3,3 C 97 % 1017,8 hPa 0,0 l/m 0 min 0 min 25 W/m 0,0 km/h (0 Bft) 97,87 %
18.01.2019 09:30 -2,6 C -2,2 C -3,3 C 97 % 1017,9 hPa 0,0 l/m 0 min 0 min 26 W/m 0,0 km/h (0 Bft) 97,87 %
18.01.2019 09:32 -2,6 C -2,2 C -3,3 C 97 % 1017,9 hPa 0,0 l/m 0 min 0 min 27 W/m 0,0 km/h (0 Bft) 95,65 %
18.01.2019 09:34 -2,5 C -2,2 C -2,8 C 97 % 1017,9 hPa 0,0 l/m 0 min 0 min 28 W/m 0,0 km/h (0 Bft) 95,74 %
18.01.2019 09:36 -2,4 C -2,2 C -3,3 C 97 % 1018,0 hPa 0,0 l/m 0 min 0 min 38 W/m 0,0 km/h (0 Bft) 100,00 %
18.01.2019 09:38 -2,4 C -2,2 C -3,3 C 97 % 1018,0 hPa 0,0 l/m 2 min 0 min 79 W/m 0,0 km/h (0 Bft) 97,14 %
18.01.2019 09:40 -2,4 C -1,1 C -3,3 C 97 % 1017,9 hPa 0,0 l/m 2 min 0 min 88 W/m 0,0 km/h (0 Bft) 100,00 %
18.01.2019 09:42 -2,4 C -0,6 C -3,3 C 97 % 1018,0 hPa 0,0 l/m 2 min 0 min 92 W/m 0,0 km/h (0 Bft) 97,87 %
18.01.2019 09:44 -2,3 C -0,6 C -3,3 C 97 % 1018,0 hPa 0,0 l/m 2 min 0 min 99 W/m 0,0 km/h (0 Bft) 97,83 %
18.01.2019 09:46 -2,3 C -0,6 C -2,8 C 97 % 1018,0 hPa 0,0 l/m 2 min 0 min 113 W/m 0,0 km/h (0 Bft) 97,87 %
18.01.2019 09:48 -2,2 C -0,6 C -2,8 C 98 % 1018,0 hPa 0,0 l/m 2 min 0 min 131 W/m 0,0 km/h (0 Bft) 95,74 %
18.01.2019 09:50 -2,1 C 0,0 C -2,8 C 97 % 1018,1 hPa 0,0 l/m 2 min 0 min 146 W/m 0,0 km/h (0 Bft) 97,87 %
18.01.2019 09:52 -2,1 C 0,0 C -2,8 C 98 % 1018,2 hPa 0,0 l/m 2 min 0 min 161 W/m 0,0 km/h (0 Bft) 95,74 %
18.01.2019 09:54 -2,0 C 0,0 C -2,8 C 98 % 1018,2 hPa 0,0 l/m 2 min 0 min 180 W/m 0,0 km/h (0 Bft) 97,87 %
18.01.2019 09:56 -1,9 C 0,0 C -2,8 C 98 % 1018,1 hPa 0,0 l/m 2 min 0 min 196 W/m 0,0 km/h (0 Bft) 95,65 %
18.01.2019 09:58 -1,8 C 0,0 C -2,8 C 98 % 1018,2 hPa 0,0 l/m 2 min 0 min 205 W/m 0,0 km/h (0 Bft) 95,83 %
18.01.2019 10:00 -1,8 C 1,1 C -2,8 C 98 % 1018,2 hPa 0,0 l/m 2 min 0 min 205 W/m 0,0 km/h (0 Bft) 97,87 %
18.01.2019 10:02 -1,7 C 1,1 C -2,2 C 98 % 1018,3 hPa 0,0 l/m 2 min 0 min 198 W/m 0,0 km/h (0 Bft) 93,75 %
18.01.2019 10:04 -1,6 C 1,1 C -2,2 C 98 % 1018,3 hPa 0,0 l/m 2 min 0 min 195 W/m 0,0 km/h (0 Bft) 97,87 %
18.01.2019 10:06 -1,4 C 1,1 C -2,2 C 98 % 1018,4 hPa 0,0 l/m 2 min 0 min 188 W/m 0,0 km/h (0 Bft) 97,83 %
18.01.2019 10:08 -1,3 C 0,6 C -2,2 C 98 % 1018,4 hPa 0,0 l/m 2 min 0 min 191 W/m 0,0 km/h (0 Bft) 97,87 %
18.01.2019 10:10 -1,2 C 0,6 C -2,2 C 98 % 1018,4 hPa 0,0 l/m 2 min 0 min 160 W/m 0,0 km/h (0 Bft) 97,87 %
18.01.2019 10:12 -1,1 C 1,7 C -2,2 C 98 % 1018,4 hPa 0,0 l/m 2 min 0 min 109 W/m 0,0 km/h (0 Bft) 97,87 %
18.01.2019 10:14 -1,0 C 1,1 C -2,2 C 98 % 1018,4 hPa 0,0 l/m 0 min 0 min 101 W/m 0,0 km/h (0 Bft) 97,87 %
18.01.2019 10:16 -0,9 C 1,1 C -2,2 C 98 % 1018,4 hPa 0,0 l/m 0 min 0 min 88 W/m 0,0 km/h (0 Bft) 97,87 %
18.01.2019 10:18 -0,9 C 0,6 C -1,7 C 98 % 1018,4 hPa 0,0 l/m 0 min 0 min 94 W/m 0,0 km/h (0 Bft) 97,83 %
18.01.2019 10:20 -0,8 C 1,1 C -1,7 C 98 % 1018,6 hPa 0,0 l/m 2 min 0 min 143 W/m 0,0 km/h (0 Bft) 97,87 %
18.01.2019 10:22 -0,7 C 1,7 C -1,7 C 98 % 1018,5 hPa 0,2 l/m 2 min 0 min 244 W/m 0,0 km/h (0 Bft) 97,87 %
18.01.2019 10:24 -0,6 C 1,7 C -1,7 C 98 % 1018,6 hPa 0,0 l/m 2 min 0 min 212 W/m 0,0 km/h (0 Bft) 97,87 %
18.01.2019 10:26 -0,6 C 1,7 C -1,7 C 98 % 1018,6 hPa 0,0 l/m 2 min 0 min 134 W/m 0,0 km/h (0 Bft) 97,87 %
18.01.2019 10:28 -0,5 C 1,1 C -1,7 C 98 % 1018,6 hPa 0,0 l/m 2 min 0 min 141 W/m 0,0 km/h (0 Bft) 97,87 %
18.01.2019 10:30 -0,4 C 1,1 C -1,7 C 98 % 1018,6 hPa 0,0 l/m 2 min 0 min 138 W/m 0,0 km/h (0 Bft) 97,87 %
18.01.2019 10:32 -0,4 C 1,7 C -1,7 C 98 % 1018,7 hPa 0,0 l/m 2 min 0 min 161 W/m 0,0 km/h (0 Bft) 95,65 %
18.01.2019 10:34 -0,3 C 1,7 C -1,7 C 98 % 1018,7 hPa 0,0 l/m 2 min 0 min 158 W/m 0,0 km/h (0 Bft) 97,87 %
18.01.2019 10:36 -0,3 C 1,7 C -1,1 C 98 % 1018,6 hPa 0,0 l/m 2 min 0 min 140 W/m 3,2 km/h (1 Bft) 98,31 %
18.01.2019 10:38 -0,3 C 1,7 C -1,1 C 98 % 1018,7 hPa 0,0 l/m 0 min 0 min 126 W/m 0,0 km/h (0 Bft) 97,14 %
18.01.2019 10:40 -0,2 C 1,7 C -1,1 C 98 % 1018,7 hPa 0,0 l/m 0 min 0 min 120 W/m 0,0 km/h (0 Bft) 93,62 %
18.01.2019 10:42 -0,2 C 1,7 C -1,1 C 98 % 1018,6 hPa 0,0 l/m 0 min 0 min 111 W/m 0,0 km/h (0 Bft) 93,48 %
18.01.2019 10:44 -0,2 C 1,1 C -1,1 C 98 % 1018,7 hPa 0,0 l/m 0 min 0 min 118 W/m 0,0 km/h (0 Bft) 95,74 %
18.01.2019 10:46 -0,2 C 1,7 C -1,1 C 98 % 1018,7 hPa 0,0 l/m 0 min 0 min 126 W/m 0,0 km/h (0 Bft) 93,62 %
18.01.2019 10:48 -0,1 C 1,7 C -1,1 C 98 % 1018,8 hPa 0,0 l/m 2 min 0 min 147 W/m 0,0 km/h (0 Bft) 95,74 %
18.01.2019 10:50 -0,1 C 2,2 C -1,1 C 98 % 1018,8 hPa 0,0 l/m 2 min 0 min 163 W/m 0,0 km/h (0 Bft) 97,87 %
18.01.2019 10:52 -0,1 C 3,3 C -1,1 C 98 % 1018,8 hPa 0,0 l/m 2 min 0 min 200 W/m 0,0 km/h (0 Bft) 93,62 %
18.01.2019 10:54 -0,1 C 3,3 C -1,1 C 98 % 1018,8 hPa 0,0 l/m 2 min 0 min 211 W/m 0,0 km/h (0 Bft) 93,48 %
18.01.2019 10:56 0,0 C 3,3 C -1,1 C 98 % 1018,8 hPa 0,0 l/m 2 min 0 min 198 W/m 0,0 km/h (0 Bft) 95,74 %
18.01.2019 10:58 0,1 C 2,2 C -1,1 C 98 % 1019,0 hPa 0,0 l/m 2 min 0 min 158 W/m 3,2 km/h (1 Bft) 93,62 %
18.01.2019 11:00 0,1 C 2,2 C -1,1 C 98 % 1019,0 hPa 0,0 l/m 2 min 0 min 166 W/m 0,0 km/h (0 Bft) 95,74 %
18.01.2019 11:02 0,2 C 2,8 C -1,1 C 98 % 1018,9 hPa 0,0 l/m 2 min 0 min 163 W/m 3,2 km/h (1 Bft) 94,12 %
18.01.2019 11:04 0,2 C 2,2 C -1,1 C 98 % 1018,9 hPa 0,2 l/m 0 min 0 min 127 W/m 0,0 km/h (0 Bft) 95,65 %
18.01.2019 11:06 0,2 C 2,2 C -1,1 C 98 % 1018,9 hPa 0,0 l/m 0 min 0 min 109 W/m 3,2 km/h (1 Bft) 93,62 %
18.01.2019 11:08 0,3 C 2,2 C -1,1 C 98 % 1019,0 hPa 0,0 l/m 0 min 0 min 114 W/m 0,0 km/h (0 Bft) 91,49 %
18.01.2019 11:10 0,3 C 1,7 C -1,1 C 98 % 1019,0 hPa 0,0 l/m 0 min 0 min 118 W/m 0,0 km/h (0 Bft) 93,62 %
18.01.2019 11:12 0,4 C 2,2 C -1,1 C 98 % 1019,0 hPa 0,0 l/m 0 min 0 min 144 W/m 0,0 km/h (0 Bft) 87,23 %
18.01.2019 11:14 0,4 C 2,2 C -1,1 C 98 % 1019,0 hPa 0,0 l/m 2 min 0 min 152 W/m 6,4 km/h (2 Bft) 93,62 %
18.01.2019 11:16 0,4 C 2,8 C -1,1 C 98 % 1019,1 hPa 0,0 l/m 2 min 0 min 229 W/m 3,2 km/h (1 Bft) 93,48 %
18.01.2019 11:18 0,4 C 3,3 C -1,1 C 98 % 1019,1 hPa 0,0 l/m 2 min 0 min 221 W/m 3,2 km/h (1 Bft) 93,62 %
18.01.2019 11:20 0,4 C 3,9 C -1,1 C 98 % 1019,1 hPa 0,0 l/m 2 min 0 min 252 W/m 3,2 km/h (1 Bft) 95,74 %
18.01.2019 11:22 0,5 C 4,4 C -1,1 C 98 % 1019,1 hPa 0,0 l/m 2 min 0 min 256 W/m 0,0 km/h (0 Bft) 95,74 %
18.01.2019 11:24 0,5 C 4,4 C -1,1 C 98 % 1019,1 hPa 0,0 l/m 2 min 0 min 220 W/m 3,2 km/h (1 Bft) 95,74 %
18.01.2019 11:26 0,5 C 5,0 C -1,1 C 98 % 1019,1 hPa 0,0 l/m 2 min 0 min 196 W/m 3,2 km/h (1 Bft) 93,62 %
18.01.2019 11:28 0,5 C 4,4 C -1,1 C 98 % 1019,1 hPa 0,0 l/m 2 min 0 min 206 W/m 3,2 km/h (1 Bft) 93,48 %
18.01.2019 11:30 0,6 C 4,4 C -1,1 C 98 % 1019,1 hPa 0,0 l/m 2 min 0 min 210 W/m 3,2 km/h (1 Bft) 95,74 %
18.01.2019 11:32 0,7 C 3,3 C -1,1 C 98 % 1019,2 hPa 0,0 l/m 0 min 0 min 150 W/m 6,4 km/h (2 Bft) 93,62 %
18.01.2019 11:34 0,7 C 2,8 C -1,1 C 98 % 1019,2 hPa 0,0 l/m 2 min 0 min 190 W/m 6,4 km/h (2 Bft) 95,74 %
18.01.2019 11:36 0,7 C 3,3 C -1,1 C 98 % 1019,1 hPa 0,0 l/m 2 min 0 min 178 W/m 0,0 km/h (0 Bft) 97,87 %
18.01.2019 11:38 0,7 C 2,8 C -1,1 C 98 % 1019,1 hPa 0,0 l/m 0 min 0 min 147 W/m 3,2 km/h (1 Bft) 97,87 %
18.01.2019 11:40 0,8 C 2,2 C -0,6 C 98 % 1019,1 hPa 0,0 l/m 2 min 0 min 177 W/m 6,4 km/h (2 Bft) 95,74 %
18.01.2019 11:42 0,8 C 1,7 C -0,6 C 98 % 1019,1 hPa 0,2 l/m 0 min 0 min 149 W/m 6,4 km/h (2 Bft) 97,87 %
18.01.2019 11:44 0,8 C 1,7 C -0,6 C 98 % 1019,1 hPa 0,0 l/m 0 min 0 min 136 W/m 3,2 km/h (1 Bft) 97,83 %
18.01.2019 11:46 0,8 C 1,7 C -0,6 C 98 % 1019,2 hPa 0,0 l/m 2 min 0 min 165 W/m 6,4 km/h (2 Bft) 100,00 %
18.01.2019 11:48 0,8 C 1,7 C -0,6 C 98 % 1019,1 hPa 0,0 l/m 0 min 0 min 146 W/m 6,4 km/h (2 Bft) 100,00 %
18.01.2019 11:50 0,8 C 2,2 C -0,6 C 98 % 1019,1 hPa 0,0 l/m 2 min 0 min 191 W/m 9,7 km/h (2 Bft) 100,00 %
18.01.2019 11:52 0,8 C 2,2 C -0,6 C 98 % 1019,1 hPa 0,0 l/m 2 min 0 min 223 W/m 6,4 km/h (2 Bft) 100,00 %
18.01.2019 11:54 0,8 C 2,2 C -0,6 C 98 % 1019,1 hPa 0,0 l/m 2 min 0 min 168 W/m 6,4 km/h (2 Bft) 100,00 %
18.01.2019 11:56 0,8 C 2,2 C -0,6 C 98 % 1019,1 hPa 0,0 l/m 0 min 0 min 162 W/m 3,2 km/h (1 Bft) 100,00 %
18.01.2019 11:58 0,7 C 1,7 C -0,6 C 98 % 1019,1 hPa 0,0 l/m 2 min 0 min 174 W/m 3,2 km/h (1 Bft) 100,00 %
18.01.2019 12:00 0,7 C 1,7 C -0,6 C 98 % 1019,1 hPa 0,0 l/m 0 min 0 min 162 W/m 3,2 km/h (1 Bft) 100,00 %
18.01.2019 12:02 0,6 C 1,1 C -0,6 C 98 % 1019,1 hPa 0,0 l/m 0 min 0 min 161 W/m 6,4 km/h (2 Bft) 95,74 %
18.01.2019 12:04 0,6 C 1,1 C -0,6 C 98 % 1019,1 hPa 0,0 l/m 0 min 0 min 158 W/m 6,4 km/h (2 Bft) 100,00 %
18.01.2019 12:08 0,5 C 0,6 C -0,6 C 98 % 1019,1 hPa 0,0 l/m 0 min 0 min 124 W/m 6,4 km/h (2 Bft) 90,32 %
18.01.2019 12:10 0,5 C 0,0 C -1,1 C 98 % 1019,1 hPa 0,0 l/m 0 min 0 min 86 W/m 6,4 km/h (2 Bft) 95,74 %
18.01.2019 12:12 0,5 C 0,0 C -1,1 C 98 % 1019,1 hPa 0,0 l/m 0 min 0 min 80 W/m 0,0 km/h (0 Bft) 100,00 %
18.01.2019 12:14 0,4 C 0,0 C -1,1 C 98 % 1019,1 hPa 0,0 l/m 0 min 0 min 84 W/m 3,2 km/h (1 Bft) 100,00 %
18.01.2019 12:16 0,4 C 0,0 C -0,6 C 98 % 1019,1 hPa 0,0 l/m 0 min 0 min 89 W/m 0,0 km/h (0 Bft) 100,00 %
18.01.2019 12:18 0,4 C 0,6 C -0,6 C 98 % 1019,1 hPa 0,0 l/m 0 min 0 min 124 W/m 0,0 km/h (0 Bft) 100,00 %
18.01.2019 12:20 0,3 C 0,6 C -0,6 C 98 % 1019,1 hPa 0,0 l/m 0 min 0 min 162 W/m 6,4 km/h (2 Bft) 97,87 %
18.01.2019 12:22 0,3 C 0,6 C -0,6 C 98 % 1019,0 hPa 0,0 l/m 2 min 0 min 199 W/m 9,7 km/h (2 Bft) 97,87 %
18.01.2019 12:24 0,3 C 0,6 C 0,0 C 98 % 1019,0 hPa 0,0 l/m 0 min 0 min 167 W/m 6,4 km/h (2 Bft) 100,00 %
18.01.2019 12:26 0,2 C 0,6 C -0,6 C 98 % 1019,0 hPa 0,0 l/m 0 min 0 min 127 W/m 3,2 km/h (1 Bft) 100,00 %
18.01.2019 12:28 0,2 C 0,0 C -0,6 C 98 % 1018,9 hPa 0,0 l/m 0 min 0 min 113 W/m 3,2 km/h (1 Bft) 100,00 %
18.01.2019 12:30 0,2 C 0,0 C -0,6 C 98 % 1018,9 hPa 0,0 l/m 0 min 0 min 113 W/m 6,4 km/h (2 Bft) 100,00 %
18.01.2019 12:32 0,1 C 0,0 C -0,6 C 98 % 1019,0 hPa 0,0 l/m 0 min 0 min 104 W/m 3,2 km/h (1 Bft) 100,00 %
18.01.2019 12:34 0,1 C 0,0 C -0,6 C 98 % 1019,0 hPa 0,0 l/m 0 min 0 min 92 W/m 0,0 km/h (0 Bft) 100,00 %
18.01.2019 12:36 0,1 C 0,0 C -0,6 C 98 % 1018,9 hPa 0,0 l/m 0 min 0 min 104 W/m 0,0 km/h (0 Bft) 100,00 %
18.01.2019 12:38 0,1 C 0,0 C -0,6 C 98 % 1019,0 hPa 0,0 l/m 0 min 0 min 133 W/m 0,0 km/h (0 Bft) 100,00 %
18.01.2019 12:40 0,1 C 0,0 C 0,0 C 98 % 1018,9 hPa 0,0 l/m 0 min 0 min 146 W/m 6,4 km/h (2 Bft) 97,87 %
18.01.2019 12:42 0,1 C 0,0 C 0,0 C 98 % 1018,9 hPa 0,0 l/m 0 min 0 min 153 W/m 0,0 km/h (0 Bft) 97,83 %
18.01.2019 12:44 0,1 C 0,0 C -0,6 C 98 % 1018,9 hPa 0,0 l/m 0 min 0 min 137 W/m 9,7 km/h (2 Bft) 91,49 %
18.01.2019 12:46 0,1 C 0,0 C -0,6 C 98 % 1018,9 hPa 0,0 l/m 0 min 0 min 126 W/m 6,4 km/h (2 Bft) 100,00 %
18.01.2019 12:48 0,1 C 0,0 C -0,6 C 98 % 1018,9 hPa 0,0 l/m 0 min 0 min 132 W/m 12,9 km/h (3 Bft) 100,00 %
18.01.2019 12:50 0,0 C 0,0 C -0,6 C 98 % 1019,0 hPa 0,0 l/m 0 min 0 min 117 W/m 3,2 km/h (1 Bft) 100,00 %
18.01.2019 12:52 0,0 C 0,0 C -0,6 C 98 % 1018,9 hPa 0,0 l/m 0 min 0 min 112 W/m 3,2 km/h (1 Bft) 100,00 %
18.01.2019 12:54 0,0 C 0,0 C -0,6 C 98 % 1018,9 hPa 0,0 l/m 0 min 0 min 123 W/m 6,4 km/h (2 Bft) 100,00 %
18.01.2019 12:56 0,0 C 0,0 C -0,6 C 98 % 1018,9 hPa 0,0 l/m 0 min 0 min 110 W/m 6,4 km/h (2 Bft) 97,87 %
18.01.2019 12:58 -0,1 C 0,0 C -0,6 C 98 % 1018,9 hPa 0,0 l/m 0 min 0 min 96 W/m 6,4 km/h (2 Bft) 100,00 %
18.01.2019 13:00 -0,1 C -0,6 C -0,6 C 98 % 1018,9 hPa 0,0 l/m 0 min 0 min 89 W/m 9,7 km/h (2 Bft) 100,00 %
18.01.2019 13:02 -0,1 C -0,6 C -1,1 C 98 % 1018,9 hPa 0,0 l/m 0 min 0 min 75 W/m 9,7 km/h (2 Bft) 97,87 %
18.01.2019 13:04 -0,1 C -0,6 C -1,1 C 98 % 1018,9 hPa 0,0 l/m 0 min 0 min 69 W/m 3,2 km/h (1 Bft) 97,87 %
18.01.2019 13:06 -0,2 C -0,6 C -1,1 C 98 % 1018,9 hPa 0,0 l/m 0 min 0 min 70 W/m 0,0 km/h (0 Bft) 97,83 %
18.01.2019 13:08 -0,2 C -0,6 C -1,1 C 98 % 1018,9 hPa 0,0 l/m 0 min 0 min 85 W/m 3,2 km/h (1 Bft) 95,74 %
18.01.2019 13:10 -0,2 C -0,6 C -1,1 C 98 % 1018,9 hPa 0,0 l/m 0 min 0 min 82 W/m 9,7 km/h (2 Bft) 97,87 %
18.01.2019 13:12 -0,2 C -0,6 C -1,1 C 98 % 1018,8 hPa 0,0 l/m 0 min 0 min 104 W/m 9,7 km/h (2 Bft) 97,87 %
18.01.2019 13:14 -0,3 C -0,6 C -1,1 C 98 % 1018,8 hPa 0,0 l/m 0 min 0 min 101 W/m 3,2 km/h (1 Bft) 95,74 %
18.01.2019 13:16 -0,3 C -0,6 C -1,1 C 98 % 1018,8 hPa 0,0 l/m 0 min 0 min 103 W/m 6,4 km/h (2 Bft) 95,74 %
18.01.2019 13:18 -0,3 C -0,6 C -1,1 C 98 % 1018,8 hPa 0,0 l/m 0 min 0 min 118 W/m 9,7 km/h (2 Bft) 95,65 %
18.01.2019 13:20 -0,4 C -1,1 C -1,1 C 98 % 1018,8 hPa 0,0 l/m 0 min 0 min 116 W/m 9,7 km/h (2 Bft) 97,87 %
18.01.2019 13:22 -0,4 C -1,1 C -1,1 C 98 % 1018,8 hPa 0,0 l/m 0 min 0 min 100 W/m 3,2 km/h (1 Bft) 97,87 %
18.01.2019 13:24 -0,4 C -0,6 C -1,1 C 98 % 1018,8 hPa 0,0 l/m 0 min 0 min 123 W/m 3,2 km/h (1 Bft) 97,87 %
18.01.2019 13:26 -0,4 C -0,6 C -1,1 C 98 % 1018,8 hPa 0,0 l/m 0 min 0 min 112 W/m 9,7 km/h (2 Bft) 97,87 %
18.01.2019 13:28 -0,4 C -0,6 C -1,1 C 98 % 1018,7 hPa 0,0 l/m 0 min 0 min 105 W/m 6,4 km/h (2 Bft) 95,92 %
18.01.2019 13:30 -0,5 C -1,1 C -1,1 C 98 % 1018,7 hPa 0,2 l/m 0 min 0 min 111 W/m 6,4 km/h (2 Bft) 93,62 %
18.01.2019 13:32 -0,5 C -0,6 C -1,1 C 98 % 1018,7 hPa 0,0 l/m 0 min 0 min 116 W/m 6,4 km/h (2 Bft) 97,87 %
18.01.2019 13:34 -0,6 C -0,6 C -1,1 C 98 % 1018,7 hPa 0,0 l/m 0 min 0 min 139 W/m 9,7 km/h (2 Bft) 97,83 %
18.01.2019 13:36 -0,6 C -0,6 C -1,1 C 98 % 1018,7 hPa 0,0 l/m 0 min 0 min 99 W/m 9,7 km/h (2 Bft) 97,87 %
18.01.2019 13:38 -0,6 C -1,1 C -1,1 C 98 % 1018,7 hPa 0,0 l/m 0 min 0 min 90 W/m 6,4 km/h (2 Bft) 95,74 %
18.01.2019 13:40 -0,6 C -0,6 C -1,1 C 98 % 1018,7 hPa 0,0 l/m 0 min 0 min 110 W/m 6,4 km/h (2 Bft) 95,74 %
18.01.2019 13:42 -0,6 C -0,6 C -1,1 C 97 % 1018,6 hPa 0,0 l/m 0 min 0 min 142 W/m 9,7 km/h (2 Bft) 97,87 %
18.01.2019 13:44 -0,6 C -0,6 C -1,1 C 97 % 1018,7 hPa 0,0 l/m 2 min 0 min 181 W/m 12,9 km/h (3 Bft) 97,87 %
18.01.2019 13:46 -0,6 C -0,6 C -1,1 C 97 % 1018,6 hPa 0,0 l/m 0 min 0 min 130 W/m 6,4 km/h (2 Bft) 95,65 %
18.01.2019 13:48 -0,6 C -0,6 C -1,1 C 97 % 1018,7 hPa 0,0 l/m 0 min 0 min 119 W/m 9,7 km/h (2 Bft) 97,87 %
18.01.2019 13:50 -0,7 C -1,1 C -1,1 C 97 % 1018,7 hPa 0,0 l/m 0 min 0 min 93 W/m 6,4 km/h (2 Bft) 97,87 %
18.01.2019 13:52 -0,7 C -0,6 C -1,1 C 98 % 1018,6 hPa 0,0 l/m 0 min 0 min 90 W/m 3,2 km/h (1 Bft) 97,87 %
18.01.2019 13:54 -0,7 C -0,6 C -1,1 C 98 % 1018,6 hPa 0,0 l/m 0 min 0 min 87 W/m 0,0 km/h (0 Bft) 97,87 %
18.01.2019 13:56 -0,7 C -0,6 C -1,1 C 98 % 1018,6 hPa 0,0 l/m 0 min 0 min 104 W/m 0,0 km/h (0 Bft) 97,87 %
18.01.2019 13:58 -0,6 C 0,0 C -1,1 C 98 % 1018,6 hPa 0,0 l/m 0 min 0 min 140 W/m 0,0 km/h (0 Bft) 97,83 %
18.01.2019 14:00 -0,6 C -0,6 C -1,1 C 98 % 1018,6 hPa 0,0 l/m 0 min 0 min 158 W/m 6,4 km/h (2 Bft) 97,87 %
18.01.2019 14:02 -0,6 C -0,6 C -1,1 C 98 % 1018,6 hPa 0,0 l/m 0 min 0 min 149 W/m 6,4 km/h (2 Bft) 97,92 %
18.01.2019 14:04 -0,6 C -0,6 C -1,1 C 98 % 1018,6 hPa 0,0 l/m 0 min 0 min 99 W/m 6,4 km/h (2 Bft) 93,48 %
18.01.2019 14:06 -0,6 C -1,1 C -1,1 C 98 % 1018,6 hPa 0,0 l/m 0 min 0 min 75 W/m 6,4 km/h (2 Bft) 97,87 %
18.01.2019 14:08 -0,7 C -1,1 C -1,1 C 98 % 1018,6 hPa 0,0 l/m 0 min 0 min 72 W/m 6,4 km/h (2 Bft) 95,74 %
18.01.2019 14:10 -0,7 C -1,1 C -1,7 C 98 % 1018,5 hPa 0,0 l/m 0 min 0 min 78 W/m 6,4 km/h (2 Bft) 97,87 %
18.01.2019 14:12 -0,7 C -0,6 C -1,1 C 98 % 1018,6 hPa 0,0 l/m 0 min 0 min 94 W/m 3,2 km/h (1 Bft) 95,74 %
18.01.2019 14:14 -0,7 C -0,6 C -1,1 C 98 % 1018,5 hPa 0,0 l/m 0 min 0 min 121 W/m 6,4 km/h (2 Bft) 95,74 %
18.01.2019 14:16 -0,7 C -0,6 C -1,1 C 98 % 1018,6 hPa 0,0 l/m 0 min 0 min 124 W/m 6,4 km/h (2 Bft) 97,83 %
18.01.2019 14:18 -0,7 C -0,6 C -1,1 C 98 % 1018,6 hPa 0,0 l/m 0 min 0 min 106 W/m 6,4 km/h (2 Bft) 97,87 %
18.01.2019 14:20 -0,7 C -1,1 C -1,1 C 98 % 1018,6 hPa 0,0 l/m 0 min 0 min 76 W/m 6,4 km/h (2 Bft) 95,74 %
18.01.2019 14:22 -0,6 C -1,1 C -1,1 C 98 % 1018,5 hPa 0,0 l/m 0 min 0 min 72 W/m 3,2 km/h (1 Bft) 93,62 %
18.01.2019 14:24 -0,7 C -1,1 C -1,7 C 98 % 1018,5 hPa 0,0 l/m 0 min 0 min 78 W/m 9,7 km/h (2 Bft) 95,74 %
18.01.2019 14:26 -0,7 C -1,1 C -1,7 C 98 % 1018,6 hPa 0,0 l/m 0 min 0 min 82 W/m 9,7 km/h (2 Bft) 95,65 %
18.01.2019 14:28 -0,7 C -1,1 C -1,7 C 98 % 1018,6 hPa 0,0 l/m 0 min 0 min 84 W/m 6,4 km/h (2 Bft) 95,74 %
18.01.2019 14:30 -0,7 C -1,1 C -1,7 C 98 % 1018,6 hPa 0,0 l/m 0 min 0 min 72 W/m 9,7 km/h (2 Bft) 95,74 %
18.01.2019 14:32 -0,8 C -1,1 C -1,7 C 98 % 1018,5 hPa 0,0 l/m 0 min 0 min 73 W/m 3,2 km/h (1 Bft) 95,74 %
18.01.2019 14:34 -0,8 C -1,1 C -1,7 C 98 % 1018,5 hPa 0,0 l/m 0 min 0 min 74 W/m 9,7 km/h (2 Bft) 95,74 %
18.01.2019 14:36 -0,8 C -1,1 C -1,7 C 98 % 1018,5 hPa 0,0 l/m 0 min 0 min 59 W/m 9,7 km/h (2 Bft) 93,62 %
18.01.2019 14:38 -0,8 C -1,1 C -1,7 C 98 % 1018,5 hPa 0,0 l/m 0 min 0 min 73 W/m 0,0 km/h (0 Bft) 95,65 %
18.01.2019 14:40 -0,8 C -1,1 C -1,7 C 98 % 1018,6 hPa 0,0 l/m 0 min 0 min 81 W/m 9,7 km/h (2 Bft) 95,74 %
18.01.2019 14:42 -0,8 C -1,1 C -1,7 C 98 % 1018,6 hPa 0,0 l/m 0 min 0 min 61 W/m 9,7 km/h (2 Bft) 95,74 %
18.01.2019 14:44 -0,8 C -1,1 C -1,7 C 98 % 1018,6 hPa 0,0 l/m 0 min 0 min 61 W/m 12,9 km/h (3 Bft) 97,87 %
18.01.2019 14:46 -0,8 C -1,1 C -1,7 C 98 % 1018,6 hPa 0,0 l/m 0 min 0 min 51 W/m 6,4 km/h (2 Bft) 95,74 %
18.01.2019 14:48 -0,8 C -1,1 C -1,7 C 98 % 1018,6 hPa 0,0 l/m 0 min 0 min 49 W/m 6,4 km/h (2 Bft) 97,87 %
18.01.2019 14:50 -0,9 C -1,1 C -1,7 C 98 % 1018,6 hPa 0,0 l/m 0 min 0 min 47 W/m 6,4 km/h (2 Bft) 97,83 %
18.01.2019 14:52 -0,9 C -1,1 C -1,7 C 97 % 1018,6 hPa 0,0 l/m 0 min 0 min 60 W/m 9,7 km/h (2 Bft) 97,87 %
18.01.2019 14:54 -0,9 C -1,1 C -1,7 C 97 % 1018,6 hPa 0,0 l/m 0 min 0 min 50 W/m 3,2 km/h (1 Bft) 97,87 %
18.01.2019 14:56 -0,9 C -1,1 C -1,7 C 97 % 1018,6 hPa 0,0 l/m 0 min 0 min 55 W/m 0,0 km/h (0 Bft) 97,87 %
18.01.2019 14:58 -0,9 C -1,1 C -1,7 C 97 % 1018,6 hPa 0,0 l/m 0 min 0 min 53 W/m 0,0 km/h (0 Bft) 97,87 %
18.01.2019 15:00 -0,9 C -1,1 C -1,7 C 97 % 1018,6 hPa 0,0 l/m 0 min 0 min 41 W/m 0,0 km/h (0 Bft) 95,74 %
18.01.2019 15:02 -0,9 C -1,1 C -1,7 C 97 % 1018,6 hPa 0,0 l/m 0 min 0 min 47 W/m 0,0 km/h (0 Bft) 97,83 %
18.01.2019 15:04 -0,9 C -1,1 C -1,7 C 97 % 1018,5 hPa 0,0 l/m 0 min 0 min 46 W/m 0,0 km/h (0 Bft) 97,87 %
18.01.2019 15:06 -0,9 C -1,7 C -1,7 C 97 % 1018,5 hPa 0,0 l/m 0 min 0 min 40 W/m 0,0 km/h (0 Bft) 97,87 %
18.01.2019 15:08 -0,9 C -1,7 C -1,7 C 98 % 1018,5 hPa 0,0 l/m 0 min 0 min 38 W/m 0,0 km/h (0 Bft) 97,87 %
18.01.2019 15:10 -0,9 C -1,7 C -1,7 C 98 % 1018,5 hPa 0,0 l/m 0 min 0 min 38 W/m 0,0 km/h (0 Bft) 97,87 %
18.01.2019 15:12 -0,9 C -1,7 C -1,7 C 98 % 1018,5 hPa 0,0 l/m 0 min 0 min 35 W/m 0,0 km/h (0 Bft) 97,83 %
18.01.2019 15:14 -0,9 C -1,7 C -1,7 C 98 % 1018,5 hPa 0,0 l/m 0 min 0 min 31 W/m 0,0 km/h (0 Bft) 97,87 %
18.01.2019 15:16 -1,0 C -1,7 C -1,7 C 98 % 1018,5 hPa 0,0 l/m 0 min 0 min 31 W/m 0,0 km/h (0 Bft) 100,00 %
18.01.2019 15:18 -1,0 C -1,7 C -2,2 C 98 % 1018,6 hPa 0,0 l/m 0 min 0 min 26 W/m 0,0 km/h (0 Bft) 100,00 %
18.01.2019 15:20 -1,0 C -1,7 C -1,7 C 98 % 1018,5 hPa 0,0 l/m 0 min 0 min 28 W/m 0,0 km/h (0 Bft) 100,00 %
18.01.2019 15:22 -1,0 C -1,7 C -1,7 C 98 % 1018,5 hPa 0,0 l/m 0 min 0 min 30 W/m 0,0 km/h (0 Bft) 100,00 %
18.01.2019 15:24 -1,0 C -1,7 C -1,7 C 98 % 1018,5 hPa 0,0 l/m 0 min 0 min 26 W/m 0,0 km/h (0 Bft) 100,00 %
18.01.2019 15:26 -1,1 C -1,7 C -1,7 C 98 % 1018,5 hPa 0,0 l/m 0 min 0 min 29 W/m 0,0 km/h (0 Bft) 97,87 %
18.01.2019 15:28 -1,1 C -1,7 C -2,2 C 98 % 1018,5 hPa 0,0 l/m 0 min 0 min 26 W/m 0,0 km/h (0 Bft) 100,00 %
18.01.2019 15:30 -1,1 C -1,7 C -2,2 C 98 % 1018,5 hPa 0,0 l/m 0 min 0 min 27 W/m 0,0 km/h (0 Bft) 100,00 %
18.01.2019 15:32 -1,1 C -1,7 C -2,2 C 98 % 1018,4 hPa 0,0 l/m 0 min 0 min 26 W/m 0,0 km/h (0 Bft) 97,14 %
18.01.2019 15:34 -1,1 C -1,7 C -2,2 C 98 % 1018,4 hPa 0,0 l/m 0 min 0 min 26 W/m 0,0 km/h (0 Bft) 97,87 %
18.01.2019 15:36 -1,1 C -1,7 C -2,2 C 98 % 1018,4 hPa 0,0 l/m 0 min 0 min 25 W/m 0,0 km/h (0 Bft) 96,55 %
18.01.2019 15:38 -1,1 C -1,7 C -2,2 C 98 % 1018,5 hPa 0,0 l/m 0 min 0 min 26 W/m 0,0 km/h (0 Bft) 97,22 %
18.01.2019 15:40 -1,2 C -1,7 C -2,2 C 98 % 1018,4 hPa 0,0 l/m 0 min 0 min 25 W/m 0,0 km/h (0 Bft) 95,65 %
18.01.2019 15:42 -1,2 C -1,7 C -2,2 C 98 % 1018,4 hPa 0,0 l/m 0 min 0 min 27 W/m 0,0 km/h (0 Bft) 97,87 %
18.01.2019 15:44 -1,2 C -1,7 C -2,2 C 98 % 1018,4 hPa 0,0 l/m 0 min 0 min 28 W/m 0,0 km/h (0 Bft) 97,87 %
18.01.2019 15:46 -1,2 C -1,7 C -2,2 C 98 % 1018,3 hPa 0,0 l/m 0 min 0 min 26 W/m 0,0 km/h (0 Bft) 97,87 %
18.01.2019 15:48 -1,2 C -1,7 C -2,2 C 98 % 1018,4 hPa 0,0 l/m 0 min 0 min 25 W/m 0,0 km/h (0 Bft) 95,74 %
18.01.2019 15:50 -1,2 C -1,7 C -2,2 C 98 % 1018,4 hPa 0,0 l/m 0 min 0 min 25 W/m 0,0 km/h (0 Bft) 97,83 %
18.01.2019 15:52 -1,2 C -1,7 C -2,2 C 97 % 1018,3 hPa 0,0 l/m 0 min 0 min 25 W/m 0,0 km/h (0 Bft) 97,87 %
18.01.2019 15:54 -1,2 C -1,7 C -2,2 C 97 % 1018,4 hPa 0,0 l/m 0 min 0 min 24 W/m 0,0 km/h (0 Bft) 95,74 %
18.01.2019 15:56 -1,2 C -1,7 C -2,2 C 97 % 1018,4 hPa 0,0 l/m 0 min 0 min 23 W/m 0,0 km/h (0 Bft) 97,87 %
18.01.2019 15:58 -1,2 C -1,7 C -2,2 C 98 % 1018,3 hPa 0,0 l/m 0 min 0 min 23 W/m 0,0 km/h (0 Bft) 95,74 %
18.01.2019 16:00 -1,2 C -1,7 C -2,2 C 98 % 1018,3 hPa 0,0 l/m 0 min 0 min 23 W/m 0,0 km/h (0 Bft) 97,87 %
18.01.2019 16:02 -1,2 C -1,7 C -2,2 C 98 % 1018,4 hPa 0,0 l/m 0 min 0 min 23 W/m 0,0 km/h (0 Bft) 95,65 %
18.01.2019 16:04 -1,2 C -1,7 C -2,2 C 98 % 1018,4 hPa 0,0 l/m 0 min 0 min 23 W/m 0,0 km/h (0 Bft) 97,87 %
18.01.2019 16:06 -1,2 C -1,7 C -2,2 C 98 % 1018,4 hPa 0,0 l/m 0 min 0 min 23 W/m 0,0 km/h (0 Bft) 95,74 %
18.01.2019 16:08 -1,2 C -1,7 C -2,2 C 98 % 1018,4 hPa 0,0 l/m 0 min 0 min 23 W/m 0,0 km/h (0 Bft) 97,87 %
18.01.2019 16:10 -1,2 C -1,7 C -2,2 C 98 % 1018,4 hPa 0,0 l/m 0 min 0 min 22 W/m 0,0 km/h (0 Bft) 95,74 %
18.01.2019 16:12 -1,2 C -2,2 C -2,2 C 98 % 1018,4 hPa 0,0 l/m 0 min 0 min 21 W/m 0,0 km/h (0 Bft) 95,74 %
18.01.2019 16:14 -1,3 C -2,2 C -2,2 C 98 % 1018,4 hPa 0,0 l/m 0 min 0 min 20 W/m 0,0 km/h (0 Bft) 97,83 %
18.01.2019 16:16 -1,3 C -2,2 C -2,2 C 98 % 1018,3 hPa 0,0 l/m 0 min 0 min 19 W/m 0,0 km/h (0 Bft) 97,87 %
18.01.2019 16:18 -1,3 C -1,7 C -2,2 C 98 % 1018,3 hPa 0,0 l/m 0 min 0 min 18 W/m 0,0 km/h (0 Bft) 100,00 %
18.01.2019 16:20 -1,3 C -1,7 C -2,2 C 98 % 1018,3 hPa 0,0 l/m 0 min 0 min 18 W/m 0,0 km/h (0 Bft) 97,87 %
18.01.2019 16:22 -1,3 C -1,7 C -2,2 C 98 % 1018,3 hPa 0,0 l/m 0 min 0 min 18 W/m 0,0 km/h (0 Bft) 100,00 %
18.01.2019 16:24 -1,3 C -1,7 C -2,2 C 98 % 1018,3 hPa 0,0 l/m 0 min 0 min 17 W/m 0,0 km/h (0 Bft) 97,87 %
18.01.2019 16:26 -1,3 C -2,2 C -2,2 C 98 % 1018,3 hPa 0,0 l/m 0 min 0 min 16 W/m 0,0 km/h (0 Bft) 97,83 %
18.01.2019 16:28 -1,3 C -1,1 C -2,2 C 98 % 1018,4 hPa 0,0 l/m 0 min 0 min 14 W/m 0,0 km/h (0 Bft) 100,00 %
18.01.2019 16:30 -1,3 C -1,1 C -2,2 C 98 % 1018,3 hPa 0,0 l/m 0 min 0 min 14 W/m 0,0 km/h (0 Bft) 100,00 %
18.01.2019 16:32 -1,3 C -1,1 C -2,8 C 98 % 1018,3 hPa 0,0 l/m 0 min 0 min 14 W/m 0,0 km/h (0 Bft) 97,87 %
18.01.2019 16:34 -1,4 C -1,7 C -2,8 C 98 % 1018,3 hPa 0,0 l/m 0 min 0 min 14 W/m 0,0 km/h (0 Bft) 100,00 %
18.01.2019 16:36 -1,4 C -1,7 C -2,2 C 98 % 1018,3 hPa 0,0 l/m 0 min 0 min 12 W/m 0,0 km/h (0 Bft) 100,00 %
18.01.2019 16:38 -1,4 C -2,2 C -2,2 C 98 % 1018,2 hPa 0,0 l/m 0 min 0 min 12 W/m 0,0 km/h (0 Bft) 100,00 %
18.01.2019 16:40 -1,4 C -2,2 C -2,2 C 98 % 1018,3 hPa 0,0 l/m 0 min 0 min 11 W/m 0,0 km/h (0 Bft) 100,00 %
18.01.2019 16:42 -1,4 C -2,2 C -2,2 C 98 % 1018,3 hPa 0,0 l/m 0 min 0 min 11 W/m 0,0 km/h (0 Bft) 100,00 %
18.01.2019 16:44 -1,4 C -2,2 C -2,2 C 98 % 1018,3 hPa 0,0 l/m 0 min 0 min 10 W/m 0,0 km/h (0 Bft) 100,00 %
18.01.2019 16:46 -1,5 C -2,2 C -2,2 C 98 % 1018,3 hPa 0,0 l/m 0 min 0 min 9 W/m 0,0 km/h (0 Bft) 100,00 %
18.01.2019 16:48 -1,5 C -2,2 C -2,2 C 98 % 1018,3 hPa 0,0 l/m 0 min 0 min 8 W/m 0,0 km/h (0 Bft) 100,00 %
18.01.2019 16:50 -1,6 C -2,2 C -2,2 C 98 % 1018,3 hPa 0,0 l/m 0 min 0 min 7 W/m 0,0 km/h (0 Bft) 100,00 %
18.01.2019 16:52 -1,6 C -2,2 C -2,2 C 97 % 1018,3 hPa 0,0 l/m 0 min 0 min 6 W/m 0,0 km/h (0 Bft) 100,00 %
18.01.2019 16:54 -1,6 C -2,2 C -2,2 C 97 % 1018,3 hPa 0,0 l/m 0 min 0 min 5 W/m 0,0 km/h (0 Bft) 100,00 %
18.01.2019 16:56 -1,6 C -2,2 C -2,8 C 97 % 1018,2 hPa 0,0 l/m 0 min 0 min 5 W/m 0,0 km/h (0 Bft) 100,00 %
18.01.2019 16:58 -1,7 C -2,8 C -2,8 C 97 % 1018,2 hPa 0,0 l/m 0 min 0 min 0 W/m 0,0 km/h (0 Bft) 97,87 %
18.01.2019 17:00 -1,7 C -2,8 C -2,8 C 97 % 1018,1 hPa 0,0 l/m 0 min 0 min 0 W/m 0,0 km/h (0 Bft) 100,00 %
18.01.2019 17:02 -1,7 C -2,8 C -2,8 C 97 % 1018,1 hPa 0,0 l/m 0 min 0 min 0 W/m 0,0 km/h (0 Bft) 97,87 %
18.01.2019 17:04 -1,7 C -2,8 C -2,8 C 97 % 1018,1 hPa 0,0 l/m 0 min 0 min 0 W/m 0,0 km/h (0 Bft) 100,00 %
18.01.2019 17:06 -1,8 C -2,8 C -2,8 C 98 % 1018,2 hPa 0,0 l/m 0 min 0 min 0 W/m 0,0 km/h (0 Bft) 97,87 %
18.01.2019 17:08 -1,8 C -2,8 C -2,8 C 98 % 1018,1 hPa 0,0 l/m 0 min 0 min 0 W/m 0,0 km/h (0 Bft) 97,87 %
18.01.2019 17:10 -1,8 C -2,8 C -2,8 C 98 % 1018,1 hPa 0,0 l/m 0 min 0 min 0 W/m 0,0 km/h (0 Bft) 93,62 %
18.01.2019 17:12 -1,8 C -2,8 C -2,8 C 98 % 1018,2 hPa 0,0 l/m 0 min 0 min 0 W/m 0,0 km/h (0 Bft) 97,83 %
18.01.2019 17:14 -1,8 C -2,8 C -1,7 C 98 % 1018,1 hPa 0,0 l/m 0 min 0 min 0 W/m 0,0 km/h (0 Bft) 93,62 %
18.01.2019 17:16 -1,9 C -3,3 C -1,7 C 98 % 1018,0 hPa 0,0 l/m 0 min 0 min 0 W/m 0,0 km/h (0 Bft) 93,62 %
18.01.2019 17:18 -1,9 C -3,3 C -1,7 C 98 % 1018,1 hPa 0,0 l/m 0 min 0 min 0 W/m 0,0 km/h (0 Bft) 95,74 %
18.01.2019 17:20 -1,9 C -3,3 C -1,7 C 98 % 1018,1 hPa 0,0 l/m 0 min 0 min 0 W/m 0,0 km/h (0 Bft) 93,62 %
18.01.2019 17:22 -1,9 C -2,8 C -2,2 C 98 % 1018,2 hPa 0,0 l/m 0 min 0 min 0 W/m 0,0 km/h (0 Bft) 95,74 %
18.01.2019 17:24 -1,9 C -2,8 C -2,2 C 97 % 1018,2 hPa 0,0 l/m 0 min 0 min 0 W/m 0,0 km/h (0 Bft) 95,65 %
18.01.2019 17:26 -1,9 C -2,8 C -2,2 C 97 % 1018,2 hPa 0,0 l/m 0 min 0 min 0 W/m 0,0 km/h (0 Bft) 93,62 %
18.01.2019 17:28 -1,9 C -2,8 C -2,8 C 97 % 1018,2 hPa 0,0 l/m 0 min 0 min 0 W/m 0,0 km/h (0 Bft) 95,74 %
18.01.2019 17:30 -2,0 C -2,8 C -2,8 C 97 % 1018,2 hPa 0,0 l/m 0 min 0 min 0 W/m 0,0 km/h (0 Bft) 95,74 %
18.01.2019 17:32 -2,0 C -2,8 C -2,8 C 97 % 1018,2 hPa 0,0 l/m 0 min 0 min 0 W/m 0,0 km/h (0 Bft) 96,23 %
18.01.2019 17:34 -2,0 C -2,8 C -2,8 C 97 % 1018,1 hPa 0,0 l/m 0 min 0 min 0 W/m 0,0 km/h (0 Bft) 95,74 %
18.01.2019 17:36 -2,0 C -2,8 C -2,8 C 97 % 1018,1 hPa 0,0 l/m 0 min 0 min 0 W/m 0,0 km/h (0 Bft) 91,49 %
18.01.2019 17:38 -2,0 C -2,8 C -2,8 C 97 % 1018,1 hPa 0,0 l/m 0 min 0 min 0 W/m 0,0 km/h (0 Bft) 93,62 %
18.01.2019 17:40 -2,0 C -2,8 C -2,8 C 97 % 1018,1 hPa 0,0 l/m 0 min 0 min 0 W/m 0,0 km/h (0 Bft) 95,65 %
18.01.2019 17:42 -2,0 C -2,8 C -2,8 C 97 % 1018,1 hPa 0,0 l/m 0 min 0 min 0 W/m 0,0 km/h (0 Bft) 93,62 %
18.01.2019 17:44 -2,0 C -2,8 C -2,8 C 97 % 1018,0 hPa 0,0 l/m 0 min 0 min 0 W/m 0,0 km/h (0 Bft) 95,74 %
18.01.2019 17:46 -2,1 C -2,8 C -2,8 C 97 % 1018,2 hPa 0,0 l/m 0 min 0 min 0 W/m 0,0 km/h (0 Bft) 91,49 %
18.01.2019 17:48 -2,1 C -2,8 C -2,8 C 97 % 1018,2 hPa 0,0 l/m 0 min 0 min 0 W/m 0,0 km/h (0 Bft) 95,74 %
18.01.2019 17:50 -2,1 C -2,8 C -2,8 C 97 % 1018,2 hPa 0,0 l/m 0 min 0 min 0 W/m 0,0 km/h (0 Bft) 97,87 %
18.01.2019 17:52 -2,1 C -2,8 C -2,8 C 97 % 1018,2 hPa 0,0 l/m 0 min 0 min 0 W/m 0,0 km/h (0 Bft) 93,48 %
18.01.2019 17:54 -2,1 C -2,8 C -2,8 C 98 % 1018,3 hPa 0,0 l/m 0 min 0 min 0 W/m 0,0 km/h (0 Bft) 95,74 %
18.01.2019 17:56 -2,1 C -2,8 C -2,8 C 98 % 1018,2 hPa 0,0 l/m 0 min 0 min 0 W/m 0,0 km/h (0 Bft) 95,74 %
18.01.2019 17:58 -2,1 C -3,3 C -2,8 C 98 % 1018,2 hPa 0,0 l/m 0 min 0 min 0 W/m 0,0 km/h (0 Bft) 95,74 %
18.01.2019 18:00 -2,1 C -2,8 C -2,8 C 98 % 1018,2 hPa 0,0 l/m 0 min 0 min 0 W/m 0,0 km/h (0 Bft) 97,87 %
18.01.2019 18:02 -2,1 C -2,8 C -2,8 C 98 % 1018,3 hPa 0,0 l/m 0 min 0 min 0 W/m 0,0 km/h (0 Bft) 97,87 %
18.01.2019 18:04 -2,1 C -2,8 C -2,8 C 98 % 1018,2 hPa 0,0 l/m 0 min 0 min 0 W/m 0,0 km/h (0 Bft) 97,83 %
18.01.2019 18:08 -2,1 C -2,8 C -3,3 C 98 % 1018,1 hPa 0,0 l/m 0 min 0 min 0 W/m 0,0 km/h (0 Bft) 97,87 %
18.01.2019 18:10 -2,1 C -3,3 C -3,3 C 98 % 1018,2 hPa 0,0 l/m 0 min 0 min 0 W/m 0,0 km/h (0 Bft) 97,87 %
18.01.2019 18:12 -2,1 C -3,3 C -3,3 C 98 % 1018,0 hPa 0,0 l/m 0 min 0 min 0 W/m 0,0 km/h (0 Bft) 95,74 %
18.01.2019 18:14 -2,1 C -3,3 C -3,3 C 98 % 1018,2 hPa 0,0 l/m 0 min 0 min 0 W/m 0,0 km/h (0 Bft) 97,87 %
18.01.2019 18:16 -2,1 C -3,3 C -3,3 C 98 % 1018,2 hPa 0,0 l/m 0 min 0 min 0 W/m 0,0 km/h (0 Bft) 97,83 %
18.01.2019 18:18 -2,1 C -3,3 C -3,3 C 98 % 1018,1 hPa 0,0 l/m 0 min 0 min 0 W/m 0,0 km/h (0 Bft) 97,87 %
18.01.2019 18:20 -2,2 C -3,3 C -3,3 C 97 % 1018,2 hPa 0,0 l/m 0 min 0 min 0 W/m 0,0 km/h (0 Bft) 97,87 %
18.01.2019 18:22 -2,2 C -3,3 C -3,3 C 97 % 1018,1 hPa 0,0 l/m 0 min 0 min 0 W/m 0,0 km/h (0 Bft) 97,87 %
18.01.2019 18:24 -2,2 C -3,3 C -3,3 C 97 % 1018,0 hPa 0,0 l/m 0 min 0 min 0 W/m 0,0 km/h (0 Bft) 95,74 %
18.01.2019 18:26 -2,2 C -3,9 C -3,3 C 97 % 1018,1 hPa 0,0 l/m 0 min 0 min 0 W/m 0,0 km/h (0 Bft) 97,83 %
18.01.2019 18:28 -2,2 C -3,3 C -3,9 C 97 % 1018,0 hPa 0,0 l/m 0 min 0 min 0 W/m 0,0 km/h (0 Bft) 95,74 %
18.01.2019 18:30 -2,2 C -3,3 C -3,9 C 97 % 1018,2 hPa 0,0 l/m 0 min 0 min 0 W/m 0,0 km/h (0 Bft) 95,74 %
18.01.2019 18:32 -2,2 C -3,3 C -3,3 C 97 % 1018,1 hPa 0,0 l/m 0 min 0 min 0 W/m 0,0 km/h (0 Bft) 97,87 %
18.01.2019 18:34 -2,3 C -3,9 C -3,9 C 97 % 1018,1 hPa 0,0 l/m 0 min 0 min 0 W/m 0,0 km/h (0 Bft) 97,87 %
18.01.2019 18:36 -2,3 C -3,9 C -3,9 C 97 % 1018,1 hPa 0,0 l/m 0 min 0 min 0 W/m 0,0 km/h (0 Bft) 97,87 %
18.01.2019 18:38 -2,3 C -3,9 C -3,9 C 97 % 1018,2 hPa 0,0 l/m 0 min 0 min 0 W/m 0,0 km/h (0 Bft) 97,83 %
18.01.2019 18:40 -2,3 C -3,9 C -3,9 C 97 % 1018,2 hPa 0,0 l/m 0 min 0 min 0 W/m 0,0 km/h (0 Bft) 97,87 %
18.01.2019 18:42 -2,3 C -3,9 C -3,9 C 98 % 1018,2 hPa 0,0 l/m 0 min 0 min 0 W/m 0,0 km/h (0 Bft) 97,87 %
18.01.2019 18:44 -2,4 C -3,9 C -3,9 C 98 % 1018,2 hPa 0,0 l/m 0 min 0 min 0 W/m 0,0 km/h (0 Bft) 93,62 %
18.01.2019 18:46 -2,4 C -3,9 C -3,9 C 98 % 1018,2 hPa 0,0 l/m 0 min 0 min 0 W/m 0,0 km/h (0 Bft) 95,83 %
18.01.2019 18:48 -2,4 C -3,9 C -3,9 C 98 % 1018,2 hPa 0,0 l/m 0 min 0 min 0 W/m 0,0 km/h (0 Bft) 97,87 %
18.01.2019 18:50 -2,4 C -3,9 C -3,9 C 98 % 1018,2 hPa 0,0 l/m 0 min 0 min 0 W/m 0,0 km/h (0 Bft) 97,83 %
18.01.2019 18:52 -2,4 C -3,9 C -3,9 C 98 % 1018,2 hPa 0,0 l/m 0 min 0 min 0 W/m 0,0 km/h (0 Bft) 95,74 %
18.01.2019 18:54 -2,4 C -3,3 C -3,9 C 98 % 1018,2 hPa 0,0 l/m 0 min 0 min 0 W/m 0,0 km/h (0 Bft) 97,87 %
18.01.2019 18:56 -2,5 C -3,3 C -3,9 C 98 % 1018,2 hPa 0,0 l/m 0 min 0 min 0 W/m 0,0 km/h (0 Bft) 97,87 %
18.01.2019 18:58 -2,5 C -2,8 C -3,3 C 98 % 1018,1 hPa 0,0 l/m 0 min 0 min 0 W/m 0,0 km/h (0 Bft) 97,87 %
18.01.2019 19:00 -2,5 C -2,8 C -3,3 C 97 % 1018,2 hPa 0,0 l/m 0 min 0 min 0 W/m 0,0 km/h (0 Bft) 95,74 %
18.01.2019 19:02 -2,5 C -2,8 C -3,3 C 97 % 1018,2 hPa 0,0 l/m 0 min 0 min 0 W/m 0,0 km/h (0 Bft) 93,48 %
18.01.2019 19:04 -2,5 C -2,8 C -3,3 C 97 % 1018,2 hPa 0,0 l/m 0 min 0 min 0 W/m 0,0 km/h (0 Bft) 97,87 %
18.01.2019 19:06 -2,6 C -2,8 C -3,3 C 97 % 1018,2 hPa 0,0 l/m 0 min 0 min 0 W/m 0,0 km/h (0 Bft) 97,87 %
18.01.2019 19:08 -2,6 C -2,8 C -3,3 C 97 % 1018,2 hPa 0,0 l/m 0 min 0 min 0 W/m 0,0 km/h (0 Bft) 97,87 %
18.01.2019 19:10 -2,6 C -3,3 C -3,3 C 97 % 1018,2 hPa 0,0 l/m 0 min 0 min 0 W/m 0,0 km/h (0 Bft) 97,87 %
18.01.2019 19:12 -2,6 C -3,3 C -3,3 C 97 % 1018,2 hPa 0,0 l/m 0 min 0 min 0 W/m 0,0 km/h (0 Bft) 97,83 %
18.01.2019 19:14 -2,6 C -3,3 C -3,3 C 97 % 1018,1 hPa 0,0 l/m 0 min 0 min 0 W/m 0,0 km/h (0 Bft) 97,87 %
18.01.2019 19:16 -2,6 C -3,3 C -3,9 C 97 % 1018,2 hPa 0,0 l/m 0 min 0 min 0 W/m 0,0 km/h (0 Bft) 97,87 %
18.01.2019 19:18 -2,6 C -3,3 C -3,9 C 97 % 1018,1 hPa 0,0 l/m 0 min 0 min 0 W/m 0,0 km/h (0 Bft) 97,87 %
18.01.2019 19:20 -2,5 C -3,3 C -3,9 C 97 % 1018,2 hPa 0,0 l/m 0 min 0 min 0 W/m 0,0 km/h (0 Bft) 97,87 %
18.01.2019 19:22 -2,6 C -3,3 C -3,9 C 97 % 1018,2 hPa 0,0 l/m 0 min 0 min 0 W/m 0,0 km/h (0 Bft) 100,00 %
18.01.2019 19:24 -2,6 C -3,3 C -3,9 C 97 % 1018,1 hPa 0,0 l/m 0 min 0 min 0 W/m 0,0 km/h (0 Bft) 97,83 %
18.01.2019 19:26 -2,6 C -3,3 C -3,9 C 97 % 1018,0 hPa 0,0 l/m 0 min 0 min 0 W/m 0,0 km/h (0 Bft) 97,87 %
18.01.2019 19:28 -2,6 C -2,8 C -3,9 C 97 % 1018,0 hPa 0,0 l/m 0 min 0 min 0 W/m 0,0 km/h (0 Bft) 97,87 %
18.01.2019 19:30 -2,6 C -2,8 C -3,3 C 97 % 1018,0 hPa 0,0 l/m 0 min 0 min 0 W/m 0,0 km/h (0 Bft) 97,87 %
18.01.2019 19:32 -2,6 C -2,2 C -3,3 C 97 % 1018,0 hPa 0,0 l/m 0 min 0 min 0 W/m 0,0 km/h (0 Bft) 97,87 %
18.01.2019 19:34 -2,5 C -2,2 C -3,3 C 97 % 1018,1 hPa 0,0 l/m 0 min 0 min 0 W/m 0,0 km/h (0 Bft) 97,87 %
18.01.2019 19:36 -2,5 C -2,2 C -3,3 C 98 % 1018,0 hPa 0,0 l/m 0 min 0 min 0 W/m 0,0 km/h (0 Bft) 97,83 %
18.01.2019 19:38 -2,4 C -2,2 C -3,3 C 98 % 1018,0 hPa 0,0 l/m 0 min 0 min 0 W/m 0,0 km/h (0 Bft) 97,92 %
18.01.2019 19:40 -2,4 C -2,2 C -3,3 C 98 % 1018,0 hPa 0,0 l/m 0 min 0 min 0 W/m 0,0 km/h (0 Bft) 97,87 %
18.01.2019 19:42 -2,4 C -2,2 C -3,3 C 98 % 1018,0 hPa 0,0 l/m 0 min 0 min 0 W/m 0,0 km/h (0 Bft) 97,87 %
18.01.2019 19:44 -2,3 C -2,2 C -3,3 C 98 % 1018,0 hPa 0,0 l/m 0 min 0 min 0 W/m 0,0 km/h (0 Bft) 97,87 %
18.01.2019 19:46 -2,3 C -2,8 C -3,3 C 98 % 1017,9 hPa 0,0 l/m 0 min 0 min 0 W/m 0,0 km/h (0 Bft) 97,87 %
18.01.2019 19:48 -2,3 C -2,8 C -3,3 C 98 % 1017,9 hPa 0,0 l/m 0 min 0 min 0 W/m 0,0 km/h (0 Bft) 97,83 %
18.01.2019 19:50 -2,3 C -2,2 C -3,3 C 98 % 1017,9 hPa 0,0 l/m 0 min 0 min 0 W/m 0,0 km/h (0 Bft) 95,74 %
18.01.2019 19:52 -2,2 C -2,2 C -3,3 C 98 % 1017,9 hPa 0,0 l/m 0 min 0 min 0 W/m 0,0 km/h (0 Bft) 97,87 %
18.01.2019 19:54 -2,2 C -2,2 C -3,3 C 98 % 1018,0 hPa 0,0 l/m 0 min 0 min 0 W/m 0,0 km/h (0 Bft) 97,87 %
18.01.2019 19:56 -2,2 C -2,2 C -3,3 C 98 % 1018,0 hPa 0,0 l/m 0 min 0 min 0 W/m 0,0 km/h (0 Bft) 97,87 %
18.01.2019 19:58 -2,1 C -2,2 C -2,8 C 98 % 1017,9 hPa 0,0 l/m 0 min 0 min 0 W/m 0,0 km/h (0 Bft) 97,83 %
18.01.2019 20:00 -2,1 C -2,2 C -2,8 C 98 % 1017,9 hPa 0,0 l/m 0 min 0 min 0 W/m 0,0 km/h (0 Bft) 95,74 %
18.01.2019 20:02 -2,1 C -2,2 C -2,8 C 98 % 1017,9 hPa 0,0 l/m 0 min 0 min 0 W/m 0,0 km/h (0 Bft) 95,83 %
18.01.2019 20:04 -2,1 C -2,2 C -2,8 C 98 % 1017,9 hPa 0,0 l/m 0 min 0 min 0 W/m 0,0 km/h (0 Bft) 97,87 %
18.01.2019 20:06 -2,0 C -2,2 C -2,8 C 98 % 1017,9 hPa 0,0 l/m 0 min 0 min 0 W/m 0,0 km/h (0 Bft) 100,00 %
18.01.2019 20:08 -1,9 C -2,2 C -2,8 C 98 % 1017,8 hPa 0,0 l/m 0 min 0 min 0 W/m 0,0 km/h (0 Bft) 100,00 %
18.01.2019 20:10 -1,9 C -2,2 C -2,8 C 98 % 1017,8 hPa 0,0 l/m 0 min 0 min 0 W/m 0,0 km/h (0 Bft) 100,00 %
18.01.2019 20:12 -1,9 C -2,2 C -2,8 C 98 % 1017,8 hPa 0,0 l/m 0 min 0 min 0 W/m 0,0 km/h (0 Bft) 100,00 %
18.01.2019 20:14 -1,8 C -2,2 C -2,8 C 98 % 1017,8 hPa 0,0 l/m 0 min 0 min 0 W/m 0,0 km/h (0 Bft) 97,87 %
18.01.2019 20:16 -1,8 C -2,2 C -2,8 C 98 % 1017,8 hPa 0,0 l/m 0 min 0 min 0 W/m 0,0 km/h (0 Bft) 100,00 %
18.01.2019 20:18 -1,8 C -2,2 C -2,8 C 98 % 1017,8 hPa 0,0 l/m 0 min 0 min 0 W/m 0,0 km/h (0 Bft) 100,00 %
18.01.2019 20:20 -1,8 C -2,2 C -2,8 C 98 % 1017,8 hPa 0,0 l/m 0 min 0 min 0 W/m 0,0 km/h (0 Bft) 100,00 %
18.01.2019 20:22 -1,8 C -2,2 C -2,8 C 98 % 1017,8 hPa 0,0 l/m 0 min 0 min 0 W/m 0,0 km/h (0 Bft) 100,00 %
18.01.2019 20:24 -1,7 C -2,2 C -2,8 C 98 % 1017,7 hPa 0,0 l/m 0 min 0 min 0 W/m 0,0 km/h (0 Bft) 100,00 %
18.01.2019 20:26 -1,7 C -2,2 C -2,8 C 98 % 1017,8 hPa 0,0 l/m 0 min 0 min 0 W/m 0,0 km/h (0 Bft) 100,00 %
18.01.2019 20:28 -1,7 C -2,2 C -2,8 C 98 % 1017,8 hPa 0,0 l/m 0 min 0 min 0 W/m 0,0 km/h (0 Bft) 100,00 %
18.01.2019 20:30 -1,7 C -2,2 C -2,8 C 98 % 1017,7 hPa 0,0 l/m 0 min 0 min 0 W/m 0,0 km/h (0 Bft) 100,00 %
18.01.2019 20:32 -1,7 C -2,2 C -2,8 C 98 % 1017,7 hPa 0,0 l/m 0 min 0 min 0 W/m 0,0 km/h (0 Bft) 100,00 %
18.01.2019 20:34 -1,7 C -2,2 C -2,8 C 98 % 1017,8 hPa 0,0 l/m 0 min 0 min 0 W/m 0,0 km/h (0 Bft) 100,00 %
18.01.2019 20:36 -1,7 C -2,2 C -2,8 C 98 % 1017,7 hPa 0,0 l/m 0 min 0 min 0 W/m 0,0 km/h (0 Bft) 100,00 %
18.01.2019 20:38 -1,7 C -2,2 C -2,8 C 98 % 1017,7 hPa 0,0 l/m 0 min 0 min 0 W/m 0,0 km/h (0 Bft) 100,00 %
18.01.2019 20:40 -1,7 C -2,2 C -2,8 C 98 % 1017,7 hPa 0,0 l/m 0 min 0 min 0 W/m 0,0 km/h (0 Bft) 100,00 %
18.01.2019 20:42 -1,7 C -2,2 C -2,8 C 98 % 1017,8 hPa 0,0 l/m 0 min 0 min 0 W/m 0,0 km/h (0 Bft) 100,00 %
18.01.2019 20:44 -1,7 C -2,2 C -2,8 C 98 % 1017,7 hPa 0,0 l/m 0 min 0 min 0 W/m 0,0 km/h (0 Bft) 97,87 %
18.01.2019 20:46 -1,7 C -2,2 C -2,8 C 98 % 1017,7 hPa 0,0 l/m 0 min 0 min 0 W/m 0,0 km/h (0 Bft) 100,00 %
18.01.2019 20:48 -1,7 C -2,2 C -2,8 C 98 % 1017,7 hPa 0,0 l/m 0 min 0 min 0 W/m 0,0 km/h (0 Bft) 95,74 %
18.01.2019 20:50 -1,7 C -2,2 C -2,2 C 98 % 1017,7 hPa 0,0 l/m 0 min 0 min 0 W/m 0,0 km/h (0 Bft) 97,87 %
18.01.2019 20:52 -1,7 C -2,2 C -2,8 C 98 % 1017,7 hPa 0,0 l/m 0 min 0 min 0 W/m 0,0 km/h (0 Bft) 97,87 %
18.01.2019 20:54 -1,7 C -2,2 C -2,8 C 98 % 1017,7 hPa 0,0 l/m 0 min 0 min 0 W/m 0,0 km/h (0 Bft) 97,87 %
18.01.2019 20:56 -1,7 C -2,2 C -2,8 C 98 % 1017,7 hPa 0,0 l/m 0 min 0 min 0 W/m 0,0 km/h (0 Bft) 97,87 %
18.01.2019 20:58 -1,7 C -2,2 C -2,8 C 98 % 1017,7 hPa 0,0 l/m 0 min 0 min 0 W/m 0,0 km/h (0 Bft) 93,48 %
18.01.2019 21:00 -1,7 C -2,2 C -2,8 C 98 % 1017,7 hPa 0,0 l/m 0 min 0 min 0 W/m 0,0 km/h (0 Bft) 95,74 %
18.01.2019 21:02 -1,7 C -2,2 C -2,8 C 98 % 1017,7 hPa 0,0 l/m 0 min 0 min 0 W/m 0,0 km/h (0 Bft) 91,67 %
18.01.2019 21:04 -1,7 C -2,2 C -2,8 C 98 % 1017,7 hPa 0,0 l/m 0 min 0 min 0 W/m 0,0 km/h (0 Bft) 95,74 %
18.01.2019 21:06 -1,7 C -2,2 C -2,8 C 98 % 1017,6 hPa 0,0 l/m 0 min 0 min 0 W/m 0,0 km/h (0 Bft) 95,74 %
18.01.2019 21:08 -1,7 C -2,2 C -2,8 C 98 % 1017,6 hPa 0,0 l/m 0 min 0 min 0 W/m 0,0 km/h (0 Bft) 95,74 %
18.01.2019 21:10 -1,7 C -2,2 C -2,8 C 98 % 1017,6 hPa 0,0 l/m 0 min 0 min 0 W/m 0,0 km/h (0 Bft) 95,65 %
18.01.2019 21:12 -1,7 C -2,2 C -2,8 C 98 % 1017,6 hPa 0,0 l/m 0 min 0 min 0 W/m 0,0 km/h (0 Bft) 95,74 %
18.01.2019 21:14 -1,7 C -2,2 C -2,8 C 98 % 1017,6 hPa 0,0 l/m 0 min 0 min 0 W/m 0,0 km/h (0 Bft) 95,74 %
18.01.2019 21:16 -1,7 C -2,2 C -2,8 C 98 % 1017,6 hPa 0,0 l/m 0 min 0 min 0 W/m 0,0 km/h (0 Bft) 95,74 %
18.01.2019 21:18 -1,7 C -2,2 C -2,8 C 98 % 1017,7 hPa 0,0 l/m 0 min 0 min 0 W/m 0,0 km/h (0 Bft) 93,62 %
18.01.2019 21:20 -1,7 C -2,2 C -2,8 C 98 % 1017,7 hPa 0,0 l/m 0 min 0 min 0 W/m 0,0 km/h (0 Bft) 95,65 %
18.01.2019 21:22 -1,7 C -2,2 C -2,8 C 98 % 1017,6 hPa 0,0 l/m 0 min 0 min 0 W/m 0,0 km/h (0 Bft) 93,62 %
18.01.2019 21:24 -1,7 C -2,2 C -2,8 C 98 % 1017,6 hPa 0,0 l/m 0 min 0 min 0 W/m 0,0 km/h (0 Bft) 95,74 %
18.01.2019 21:26 -1,7 C -2,2 C -2,8 C 98 % 1017,7 hPa 0,0 l/m 0 min 0 min 0 W/m 0,0 km/h (0 Bft) 95,74 %
18.01.2019 21:28 -1,7 C -2,2 C -2,8 C 98 % 1017,6 hPa 0,0 l/m 0 min 0 min 0 W/m 0,0 km/h (0 Bft) 95,74 %
18.01.2019 21:30 -1,7 C -2,2 C -2,8 C 98 % 1017,5 hPa 0,0 l/m 0 min 0 min 0 W/m 0,0 km/h (0 Bft) 95,74 %
18.01.2019 21:32 -1,7 C -2,2 C -2,8 C 98 % 1017,6 hPa 0,0 l/m 0 min 0 min 0 W/m 0,0 km/h (0 Bft) 95,65 %
18.01.2019 21:34 -1,7 C -2,2 C -2,8 C 98 % 1017,6 hPa 0,0 l/m 0 min 0 min 0 W/m 0,0 km/h (0 Bft) 95,74 %
18.01.2019 21:36 -1,6 C -2,2 C -2,8 C 98 % 1017,6 hPa 0,0 l/m 0 min 0 min 0 W/m 0,0 km/h (0 Bft) 93,62 %
18.01.2019 21:38 -1,6 C -2,2 C -2,8 C 98 % 1017,6 hPa 0,0 l/m 0 min 0 min 0 W/m 0,0 km/h (0 Bft) 97,87 %
18.01.2019 21:40 -1,6 C -2,2 C -2,8 C 98 % 1017,6 hPa 0,0 l/m 0 min 0 min 0 W/m 0,0 km/h (0 Bft) 97,87 %
18.01.2019 21:42 -1,6 C -2,2 C -2,8 C 98 % 1017,6 hPa 0,0 l/m 0 min 0 min 0 W/m 0,0 km/h (0 Bft) 97,83 %
18.01.2019 21:44 -1,6 C -2,2 C -2,8 C 98 % 1017,6 hPa 0,0 l/m 0 min 0 min 0 W/m 0,0 km/h (0 Bft) 95,74 %
18.01.2019 21:46 -1,6 C -2,2 C -2,8 C 98 % 1017,6 hPa 0,0 l/m 0 min 0 min 0 W/m 0,0 km/h (0 Bft) 100,00 %
18.01.2019 21:48 -1,6 C -2,2 C -2,8 C 98 % 1017,7 hPa 0,0 l/m 0 min 0 min 0 W/m 0,0 km/h (0 Bft) 95,74 %
18.01.2019 21:50 -1,6 C -2,2 C -2,8 C 98 % 1017,6 hPa 0,0 l/m 0 min 0 min 0 W/m 0,0 km/h (0 Bft) 97,87 %
18.01.2019 21:52 -1,6 C -2,2 C -2,8 C 98 % 1017,7 hPa 0,0 l/m 0 min 0 min 0 W/m 0,0 km/h (0 Bft) 97,14 %
18.01.2019 21:54 -1,6 C -2,2 C -2,8 C 98 % 1017,7 hPa 0,0 l/m 0 min 0 min 0 W/m 0,0 km/h (0 Bft) 97,87 %
18.01.2019 21:56 -1,6 C -2,2 C -2,8 C 98 % 1017,7 hPa 0,0 l/m 0 min 0 min 0 W/m 0,0 km/h (0 Bft) 100,00 %
18.01.2019 21:58 -1,6 C -2,2 C -2,8 C 98 % 1017,7 hPa 0,0 l/m 0 min 0 min 0 W/m 0,0 km/h (0 Bft) 95,74 %
18.01.2019 22:00 -1,6 C -2,2 C -2,8 C 98 % 1017,7 hPa 0,0 l/m 0 min 0 min 0 W/m 0,0 km/h (0 Bft) 100,00 %
18.01.2019 22:02 -1,6 C -2,2 C -2,8 C 98 % 1017,8 hPa 0,0 l/m 0 min 0 min 0 W/m 0,0 km/h (0 Bft) 95,74 %
18.01.2019 22:04 -1,6 C -2,2 C -2,8 C 98 % 1017,7 hPa 0,0 l/m 0 min 0 min 0 W/m 0,0 km/h (0 Bft) 97,83 %
18.01.2019 22:06 -1,6 C -2,2 C -2,8 C 98 % 1017,6 hPa 0,0 l/m 0 min 0 min 0 W/m 0,0 km/h (0 Bft) 96,61 %
18.01.2019 22:08 -1,6 C -2,2 C -2,8 C 98 % 1017,6 hPa 0,0 l/m 0 min 0 min 0 W/m 0,0 km/h (0 Bft) 100,00 %
18.01.2019 22:10 -1,6 C -2,2 C -2,8 C 98 % 1017,7 hPa 0,0 l/m 0 min 0 min 0 W/m 0,0 km/h (0 Bft) 95,74 %
18.01.2019 22:12 -1,6 C -2,2 C -2,8 C 98 % 1017,7 hPa 0,0 l/m 0 min 0 min 0 W/m 0,0 km/h (0 Bft) 97,87 %
18.01.2019 22:14 -1,6 C -2,2 C -2,8 C 98 % 1017,7 hPa 0,0 l/m 0 min 0 min 0 W/m 0,0 km/h (0 Bft) 97,83 %
18.01.2019 22:16 -1,6 C -2,2 C -2,8 C 98 % 1017,7 hPa 0,0 l/m 0 min 0 min 0 W/m 0,0 km/h (0 Bft) 97,87 %
18.01.2019 22:18 -1,6 C -2,2 C -2,8 C 98 % 1017,7 hPa 0,0 l/m 0 min 0 min 0 W/m 0,0 km/h (0 Bft) 97,87 %
18.01.2019 22:20 -1,6 C -2,2 C -2,8 C 98 % 1017,7 hPa 0,0 l/m 0 min 0 min 0 W/m 0,0 km/h (0 Bft) 97,87 %
18.01.2019 22:22 -1,6 C -2,2 C -2,8 C 98 % 1017,7 hPa 0,0 l/m 0 min 0 min 0 W/m 0,0 km/h (0 Bft) 95,74 %
18.01.2019 22:24 -1,6 C -2,2 C -2,8 C 98 % 1017,7 hPa 0,0 l/m 0 min 0 min 0 W/m 0,0 km/h (0 Bft) 95,74 %
18.01.2019 22:26 -1,6 C -2,2 C -2,8 C 98 % 1017,7 hPa 0,0 l/m 0 min 0 min 0 W/m 0,0 km/h (0 Bft) 97,83 %
18.01.2019 22:28 -1,6 C -2,2 C -2,8 C 98 % 1017,7 hPa 0,0 l/m 0 min 0 min 0 W/m 0,0 km/h (0 Bft) 97,87 %
18.01.2019 22:30 -1,6 C -2,2 C -2,8 C 98 % 1017,7 hPa 0,0 l/m 0 min 0 min 0 W/m 0,0 km/h (0 Bft) 97,87 %
18.01.2019 22:32 -1,6 C -2,2 C -2,8 C 98 % 1017,6 hPa 0,0 l/m 0 min 0 min 0 W/m 0,0 km/h (0 Bft) 97,87 %
18.01.2019 22:34 -1,6 C -2,2 C -2,8 C 98 % 1017,6 hPa 0,0 l/m 0 min 0 min 0 W/m 0,0 km/h (0 Bft) 97,87 %
18.01.2019 22:36 -1,6 C -2,2 C -2,8 C 98 % 1017,6 hPa 0,0 l/m 0 min 0 min 0 W/m 0,0 km/h (0 Bft) 96,55 %
18.01.2019 22:38 -1,6 C -2,2 C -2,8 C 98 % 1017,6 hPa 0,0 l/m 0 min 0 min 0 W/m 6,4 km/h (2 Bft) 100,00 %
18.01.2019 22:40 -1,6 C -2,2 C -2,8 C 98 % 1017,5 hPa 0,0 l/m 0 min 0 min 0 W/m 6,4 km/h (2 Bft) 97,87 %
18.01.2019 22:42 -1,6 C -2,2 C -2,8 C 98 % 1017,6 hPa 0,0 l/m 0 min 0 min 0 W/m 6,4 km/h (2 Bft) 95,74 %
18.01.2019 22:44 -1,6 C -2,2 C -2,8 C 98 % 1017,6 hPa 0,0 l/m 0 min 0 min 0 W/m 3,2 km/h (1 Bft) 97,87 %
18.01.2019 22:46 -1,6 C -2,2 C -2,8 C 98 % 1017,6 hPa 0,0 l/m 0 min 0 min 0 W/m 3,2 km/h (1 Bft) 97,87 %
18.01.2019 22:48 -1,6 C -2,2 C -2,8 C 98 % 1017,6 hPa 0,0 l/m 0 min 0 min 0 W/m 6,4 km/h (2 Bft) 97,87 %
18.01.2019 22:50 -1,6 C -2,2 C -2,8 C 98 % 1017,5 hPa 0,0 l/m 0 min 0 min 0 W/m 6,4 km/h (2 Bft) 97,83 %
18.01.2019 22:52 -1,6 C -2,2 C -2,8 C 98 % 1017,6 hPa 0,0 l/m 0 min 0 min 0 W/m 9,7 km/h (2 Bft) 97,87 %
18.01.2019 22:54 -1,6 C -2,2 C -2,8 C 98 % 1017,5 hPa 0,0 l/m 0 min 0 min 0 W/m 6,4 km/h (2 Bft) 100,00 %
18.01.2019 22:56 -1,6 C -2,2 C -2,8 C 98 % 1017,5 hPa 0,0 l/m 0 min 0 min 0 W/m 6,4 km/h (2 Bft) 100,00 %
18.01.2019 22:58 -1,6 C -2,2 C -2,8 C 98 % 1017,5 hPa 0,0 l/m 0 min 0 min 0 W/m 6,4 km/h (2 Bft) 100,00 %
18.01.2019 23:00 -1,7 C -2,2 C -2,8 C 98 % 1017,5 hPa 0,0 l/m 0 min 0 min 0 W/m 6,4 km/h (2 Bft) 100,00 %
18.01.2019 23:02 -1,7 C -2,2 C -2,8 C 98 % 1017,5 hPa 0,0 l/m 0 min 0 min 0 W/m 6,4 km/h (2 Bft) 97,83 %
18.01.2019 23:04 -1,7 C -2,2 C -2,8 C 98 % 1017,5 hPa 0,0 l/m 0 min 0 min 0 W/m 3,2 km/h (1 Bft) 100,00 %
18.01.2019 23:06 -1,7 C -2,2 C -2,8 C 98 % 1017,6 hPa 0,0 l/m 0 min 0 min 0 W/m 6,4 km/h (2 Bft) 100,00 %
18.01.2019 23:08 -1,7 C -2,2 C -2,8 C 98 % 1017,6 hPa 0,0 l/m 0 min 0 min 0 W/m 0,0 km/h (0 Bft) 100,00 %
18.01.2019 23:10 -1,7 C -2,2 C -2,8 C 98 % 1017,6 hPa 0,0 l/m 0 min 0 min 0 W/m 6,4 km/h (2 Bft) 100,00 %
18.01.2019 23:12 -1,7 C -2,2 C -2,8 C 98 % 1017,5 hPa 0,0 l/m 0 min 0 min 0 W/m 0,0 km/h (0 Bft) 100,00 %
18.01.2019 23:14 -1,7 C -2,2 C -2,8 C 98 % 1017,5 hPa 0,0 l/m 0 min 0 min 0 W/m 0,0 km/h (0 Bft) 97,87 %
18.01.2019 23:16 -1,7 C -2,2 C -2,8 C 98 % 1017,7 hPa 0,0 l/m 0 min 0 min 0 W/m 6,4 km/h (2 Bft) 97,87 %
18.01.2019 23:18 -1,7 C -2,2 C -2,8 C 98 % 1017,7 hPa 0,0 l/m 0 min 0 min 0 W/m 9,7 km/h (2 Bft) 100,00 %
18.01.2019 23:20 -1,7 C -2,2 C -2,8 C 98 % 1017,7 hPa 0,0 l/m 0 min 0 min 0 W/m 6,4 km/h (2 Bft) 100,00 %
18.01.2019 23:22 -1,7 C -2,2 C -2,8 C 98 % 1017,8 hPa 0,0 l/m 0 min 0 min 0 W/m 9,7 km/h (2 Bft) 97,87 %
18.01.2019 23:24 -1,7 C -2,2 C -2,8 C 98 % 1017,7 hPa 0,0 l/m 0 min 0 min 0 W/m 9,7 km/h (2 Bft) 100,00 %
18.01.2019 23:26 -1,7 C -2,2 C -2,8 C 98 % 1017,7 hPa 0,0 l/m 0 min 0 min 0 W/m 9,7 km/h (2 Bft) 97,87 %
18.01.2019 23:28 -1,7 C -2,2 C -2,8 C 98 % 1017,7 hPa 0,0 l/m 0 min 0 min 0 W/m 6,4 km/h (2 Bft) 97,87 %
18.01.2019 23:30 -1,7 C -2,2 C -2,8 C 98 % 1017,8 hPa 0,0 l/m 0 min 0 min 0 W/m 9,7 km/h (2 Bft) 97,87 %
18.01.2019 23:32 -1,7 C -2,2 C -2,8 C 98 % 1017,8 hPa 0,0 l/m 0 min 0 min 0 W/m 3,2 km/h (1 Bft) 97,87 %
18.01.2019 23:34 -1,7 C -2,2 C -2,8 C 98 % 1017,9 hPa 0,0 l/m 0 min 0 min 0 W/m 6,4 km/h (2 Bft) 97,87 %
18.01.2019 23:36 -1,7 C -2,2 C -2,8 C 98 % 1017,9 hPa 0,0 l/m 0 min 0 min 0 W/m 9,7 km/h (2 Bft) 97,83 %
18.01.2019 23:38 -1,7 C -2,2 C -2,8 C 98 % 1017,9 hPa 0,0 l/m 0 min 0 min 0 W/m 6,4 km/h (2 Bft) 97,87 %
18.01.2019 23:40 -1,7 C -2,2 C -2,8 C 98 % 1017,9 hPa 0,0 l/m 0 min 0 min 0 W/m 6,4 km/h (2 Bft) 97,87 %
18.01.2019 23:42 -1,7 C -2,2 C -2,8 C 98 % 1017,9 hPa 0,0 l/m 0 min 0 min 0 W/m 6,4 km/h (2 Bft) 95,74 %
18.01.2019 23:44 -1,7 C -2,2 C -2,8 C 98 % 1017,9 hPa 0,0 l/m 0 min 0 min 0 W/m 3,2 km/h (1 Bft) 97,87 %
18.01.2019 23:46 -1,7 C -2,2 C -2,8 C 98 % 1017,8 hPa 0,0 l/m 0 min 0 min 0 W/m 6,4 km/h (2 Bft) 97,87 %
18.01.2019 23:48 -1,7 C -2,2 C -2,8 C 98 % 1017,9 hPa 0,0 l/m 0 min 0 min 0 W/m 9,7 km/h (2 Bft) 97,83 %
18.01.2019 23:50 -1,7 C -2,2 C -2,8 C 98 % 1017,8 hPa 0,0 l/m 0 min 0 min 0 W/m 6,4 km/h (2 Bft) 97,87 %
18.01.2019 23:52 -1,7 C -2,2 C -2,8 C 98 % 1017,8 hPa 0,0 l/m 0 min 0 min 0 W/m 3,2 km/h (1 Bft) 97,87 %
18.01.2019 23:54 -1,7 C -2,2 C -2,8 C 98 % 1017,8 hPa 0,0 l/m 0 min 0 min 0 W/m 6,4 km/h (2 Bft) 97,87 %
18.01.2019 23:56 -1,7 C -2,2 C -2,8 C 98 % 1017,7 hPa 0,0 l/m 0 min 0 min 0 W/m 6,4 km/h (2 Bft) 97,87 %
18.01.2019 23:58 -1,7 C -2,2 C -2,8 C 98 % 1017,7 hPa 0,0 l/m 0 min 0 min 0 W/m 3,2 km/h (1 Bft) 97,87 %
_ Min-Zeit 08:42 08:06 08:06 00:00 00:02 - - - - 03:24 11:12
Minimum _ -3,0 C -4,4 C -4,4 C 97 % 1010,9 hPa - - - - 0,0 km/h (0 Bft) 87,23 %
_ Max-Zeit 11:40 11:26 12:24 01:34 11:32 10:22 09:38 06:40 11:22 00:04 00:00
Maximum _ 0,8 C 5,0 C 0,0 C 98 % 1019,2 hPa 0,2 l/m 2 min 2 min 256 W/m 22,5 km/h
W-NW (4 Bft)
100,00 %
Durchschnitt _ -1,2 C -1,6 C -2,3 C 98 % 1016,8 hPa #0,8 l/m #1:48 h #2 min. 89 W/m 2,8 km/h (1 Bft) 97,36 %
© 2019 W. Hausmann